GFSGBSN_sfc_vis_105.txt.gz
Visibility
15.0 15.0 15.0 15.0 15.0 15.0 15.0 15.0 15.0 15.0 15.0 15.0 15.0 15.0 15.0 15.0 15.0 15.0 15.0 15.0 15.0 15.0 15.0 15.0 15.0 15.0 15.0 15.0 15.0 15.0 15.0 15.0 15.0 15.0 15.0 15.0 15.0 15.0 15.0 15.0 15.0 15.0 15.0 15.0 15.0 15.0 15.0
15.0 15.0 15.0 15.0 15.0 15.0 15.0 15.0 15.0 15.0 15.0 15.0 15.0 15.0 15.0 15.0 15.0 15.0 15.0 15.0 15.0 15.0 15.0 15.0 15.0 15.0 15.0 15.0 15.0 15.0 15.0 15.0 15.0 15.0 15.0 15.0 15.0 15.0 15.0 15.0 15.0 15.0 15.0 15.0 15.0 15.0 15.0
15.0 15.0 15.0 15.0 15.0 15.0 15.0 15.0 15.0 8.8 15.0 15.0 15.0 15.0 15.0 15.0 15.0 15.0 15.0 15.0 15.0 15.0 15.0 15.0 15.0 15.0 15.0 15.0 15.0 15.0 15.0 15.0 15.0 15.0 15.0 15.0 15.0 15.0 15.0 15.0 15.0 15.0 15.0 15.0 15.0 15.0 15.0
15.0 2.6 11.7 9.6 13.6 15.0 14.9 15.0 15.0 15.0 15.0 15.0 15.0 15.0 15.0 15.0 15.0 15.0 15.0 15.0 15.0 15.0 15.0 15.0 15.0 15.0 0.2 15.0 15.0 15.0 15.0 15.0 15.0 15.0 15.0 15.0 15.0 15.0 15.0 15.0 15.0 15.0 15.0 15.0 15.0 15.0 15.0
15.0 15.0 15.0 8.5 11.6 12.4 9.5 5.3 14.1 15.0 15.0 15.0 15.0 15.0 15.0 15.0 15.0 15.0 15.0 15.0 15.0 15.0 15.0 15.0 15.0 8.3 0.8 15.0 15.0 15.0 15.0 15.0 15.0 15.0 15.0 15.0 15.0 15.0 15.0 15.0 15.0 15.0 15.0 15.0 15.0 15.0 15.0
9.3 15.0 14.8 15.0 7.9 8.4 15.0 15.0 15.0 15.0 15.0 4.9 15.0 15.0 15.0 15.0 15.0 15.0 15.0 15.0 15.0 15.0 15.0 15.0 15.0 15.0 15.0 15.0 15.0 15.0 15.0 15.0 15.0 15.0 15.0 15.0 15.0 15.0 15.0 15.0 15.0 15.0 15.0 15.0 15.0 15.0 15.0
15.0 9.6 13.3 13.6 4.2 14.2 15.0 15.0 11.4 15.0 15.0 14.7 15.0 15.0 15.0 15.0 15.0 15.0 15.0 15.0 15.0 15.0 15.0 15.0 15.0 15.0 15.0 15.0 15.0 15.0 15.0 15.0 15.0 15.0 15.0 15.0 15.0 15.0 15.0 15.0 15.0 15.0 15.0 15.0 15.0 15.0 15.0
15.0 15.0 15.0 15.0 13.4 15.0 15.0 10.7 15.0 15.0 15.0 11.5 13.9 15.0 15.0 15.0 15.0 15.0 15.0 15.0 15.0 15.0 15.0 15.0 15.0 15.0 15.0 15.0 15.0 15.0 15.0 15.0 15.0 15.0 15.0 15.0 15.0 15.0 15.0 15.0 15.0 15.0 15.0 15.0 15.0 15.0 15.0
15.0 15.0 15.0 15.0 15.0 10.0 14.6 8.3 15.0 13.3 9.4 13.6 8.8 15.0 15.0 15.0 15.0 15.0 15.0 15.0 15.0 15.0 15.0 15.0 15.0 15.0 15.0 15.0 15.0 15.0 15.0 15.0 15.0 15.0 15.0 15.0 15.0 15.0 15.0 15.0 15.0 15.0 15.0 15.0 15.0 15.0 15.0
15.0 15.0 15.0 15.0 9.7 14.8 15.0 7.9 11.5 12.8 4.9 10.3 15.0 15.0 15.0 15.0 15.0 15.0 15.0 15.0 15.0 15.0 15.0 15.0 15.0 15.0 15.0 15.0 15.0 15.0 15.0 15.0 15.0 15.0 15.0 15.0 15.0 15.0 15.0 15.0 15.0 15.0 15.0 15.0 15.0 15.0 15.0
15.0 15.0 15.0 14.7 13.6 12.0 6.8 8.1 6.4 6.7 6.4 9.5 10.8 15.0 15.0 15.0 15.0 15.0 15.0 15.0 15.0 15.0 15.0 15.0 15.0 15.0 15.0 15.0 15.0 15.0 15.0 15.0 15.0 15.0 15.0 15.0 15.0 15.0 15.0 15.0 15.0 15.0 15.0 15.0 15.0 15.0 15.0
15.0 15.0 15.0 15.0 15.0 7.6 4.9 9.8 8.8 15.0 15.0 8.8 15.0 15.0 15.0 15.0 15.0 15.0 15.0 15.0 15.0 15.0 15.0 15.0 15.0 15.0 15.0 15.0 15.0 15.0 15.0 15.0 15.0 15.0 15.0 15.0 15.0 15.0 15.0 15.0 15.0 15.0 15.0 15.0 15.0 15.0 15.0
15.0 15.0 14.9 15.0 14.6 12.8 15.0 9.9 13.0 14.6 11.6 15.0 15.0 15.0 15.0 15.0 15.0 15.0 15.0 15.0 15.0 15.0 15.0 15.0 15.0 15.0 7.1 11.8 15.0 15.0 15.0 15.0 15.0 15.0 15.0 15.0 15.0 15.0 15.0 15.0 15.0 15.0 15.0 15.0 15.0 15.0 15.0
15.0 14.8 14.2 8.0 14.4 15.0 14.1 5.5 12.9 15.0 11.3 15.0 15.0 15.0 15.0 15.0 15.0 15.0 15.0 15.0 15.0 15.0 15.0 15.0 15.0 15.0 15.0 15.0 15.0 15.0 15.0 15.0 15.0 15.0 15.0 15.0 15.0 15.0 15.0 15.0 15.0 15.0 15.0 15.0 15.0 15.0 15.0
15.0 15.0 15.0 15.0 15.0 12.9 9.2 13.8 14.7 15.0 8.6 15.0 15.0 15.0 15.0 15.0 15.0 15.0 15.0 15.0 15.0 15.0 15.0 15.0 15.0 15.0 15.0 15.0 15.0 15.0 15.0 15.0 15.0 15.0 15.0 15.0 15.0 15.0 15.0 15.0 15.0 15.0 15.0 15.0 15.0 15.0 13.1
15.0 12.7 10.2 11.5 14.8 5.7 15.0 15.0 15.0 15.0 15.0 15.0 15.0 15.0 15.0 15.0 15.0 15.0 15.0 15.0 15.0 15.0 15.0 15.0 13.7 15.0 15.0 15.0 15.0 15.0 15.0 15.0 15.0 15.0 15.0 15.0 15.0 15.0 15.0 15.0 15.0 15.0 15.0 5.8 2.9 1.8 2.0
15.0 5.9 9.1 7.3 9.1 14.5 15.0 15.0 12.5 15.0 15.0 15.0 15.0 15.0 15.0 15.0 15.0 15.0 15.0 15.0 15.0 15.0 15.0 12.5 15.0 10.2 15.0 15.0 15.0 15.0 15.0 15.0 15.0 15.0 15.0 15.0 15.0 15.0 15.0 15.0 15.0 8.8 5.2 9.1 10.2 14.7 15.0
4.4 5.6 6.7 13.6 8.2 15.0 15.0 8.8 15.0 15.0 15.0 15.0 15.0 15.0 15.0 15.0 15.0 15.0 15.0 15.0 15.0 15.0 15.0 15.0 15.0 15.0 15.0 15.0 15.0 15.0 15.0 15.0 15.0 15.0 15.0 15.0 7.7 3.2 15.0 15.0 15.0 15.0 15.0 0.0 0.3 1.1 15.0
6.2 6.5 6.3 6.4 7.2 7.3 6.3 14.2 15.0 15.0 15.0 15.0 15.0 15.0 15.0 15.0 15.0 15.0 15.0 15.0 15.0 15.0 15.0 15.0 15.0 15.0 15.0 15.0 15.0 15.0 15.0 15.0 15.0 15.0 15.0 15.0 14.1 1.1 15.0 4.9 15.0 0.2 0.0 0.0 0.0 0.1 15.0
7.2 5.5 7.4 8.2 5.9 3.6 15.0 13.3 15.0 15.0 15.0 15.0 15.0 15.0 15.0 15.0 15.0 15.0 15.0 15.0 15.0 15.0 15.0 15.0 15.0 15.0 15.0 15.0 15.0 15.0 15.0 15.0 15.0 15.0 15.0 13.7 9.8 13.9 15.0 15.0 13.0 0.7 1.1 2.4 0.0 0.1 0.1
3.4 2.6 3.6 4.5 8.1 14.4 15.0 15.0 15.0 15.0 15.0 15.0 15.0 14.2 15.0 15.0 15.0 15.0 15.0 15.0 15.0 15.0 15.0 15.0 15.0 15.0 15.0 15.0 15.0 15.0 15.0 15.0 15.0 15.0 15.0 0.3 0.1 1.0 15.0 15.0 2.8 0.1 0.1 0.1 0.1 0.2 0.8
8.3 11.1 10.8 10.6 15.0 15.0 15.0 15.0 15.0 15.0 15.0 15.0 15.0 15.0 15.0 15.0 15.0 15.0 15.0 15.0 15.0 15.0 15.0 15.0 15.0 15.0 15.0 15.0 15.0 15.0 15.0 15.0 15.0 15.0 2.6 0.0 0.3 0.1 0.2 15.0 0.1 0.1 0.2 14.9 0.1 0.1 0.1
15.0 15.0 15.0 15.0 15.0 15.0 15.0 15.0 15.0 15.0 15.0 15.0 15.0 15.0 15.0 15.0 15.0 15.0 15.0 15.0 15.0 15.0 15.0 15.0 15.0 15.0 15.0 15.0 15.0 15.0 15.0 15.0 15.0 9.9 0.1 0.1 0.1 0.1 0.1 4.0 15.0 5.5 0.1 0.1 0.2 0.5 15.0
13.7 15.0 15.0 15.0 15.0 15.0 15.0 15.0 15.0 15.0 15.0 15.0 15.0 15.0 15.0 15.0 15.0 15.0 15.0 15.0 15.0 15.0 15.0 15.0 15.0 15.0 15.0 15.0 15.0 15.0 15.0 15.0 15.0 15.0 0.1 0.2 0.1 0.1 0.1 0.2 3.6 0.1 0.1 1.7 0.5 0.2 0.6
15.0 15.0 15.0 15.0 15.0 15.0 15.0 15.0 15.0 15.0 15.0 15.0 15.0 15.0 15.0 15.0 15.0 15.0 15.0 15.0 15.0 15.0 15.0 15.0 15.0 15.0 15.0 15.0 13.9 14.7 15.0 12.2 0.5 0.3 0.0 0.0 0.1 0.0 0.1 1.5 0.2 0.1 9.5 1.8 1.1 0.8 0.5
15.0 15.0 15.0 15.0 15.0 15.0 15.0 15.0 15.0 15.0 15.0 15.0 15.0 15.0 15.0 15.0 15.0 15.0 15.0 15.0 15.0 15.0 15.0 15.0 15.0 15.0 15.0 3.4 2.3 1.4 0.1 0.4 8.7 5.1 15.0 14.6 0.1 0.0 3.6 10.2 0.2 0.5 15.0 15.0 15.0 6.3 8.8
15.0 15.0 15.0 15.0 15.0 15.0 15.0 15.0 15.0 15.0 15.0 15.0 15.0 15.0 15.0 15.0 15.0 15.0 15.0 15.0 15.0 15.0 15.0 15.0 15.0 15.0 15.0 15.0 15.0 9.2 0.3 9.4 5.0 4.0 0.4 1.2 0.3 0.4 15.0 13.8 0.7 1.1 6.3 15.0 13.1 1.6 15.0
12.5 15.0 15.0 15.0 15.0 15.0 15.0 15.0 15.0 15.0 15.0 15.0 15.0 15.0 15.0 15.0 15.0 15.0 15.0 15.0 15.0 15.0 15.0 15.0 15.0 15.0 15.0 15.0 15.0 15.0 2.1 0.7 0.4 2.4 0.9 3.7 0.7 4.2 15.0 15.0 9.1 15.0 7.7 7.6 1.3 0.6 0.8
15.0 15.0 15.0 15.0 15.0 15.0 15.0 15.0 15.0 15.0 15.0 15.0 15.0 15.0 15.0 15.0 15.0 15.0 15.0 15.0 15.0 15.0 15.0 15.0 15.0 15.0 15.0 5.7 13.1 14.6 2.0 15.0 1.8 0.9 15.0 2.2 1.7 2.0 0.4 0.9 0.4 0.7 0.2 0.2 1.0 2.2 0.1

GFSGBSN_sfc_vis_108.txt.gz
Visibility
15.0 15.0 15.0 15.0 15.0 15.0 15.0 15.0 15.0 15.0 15.0 15.0 15.0 15.0 15.0 15.0 15.0 15.0 15.0 15.0 15.0 15.0 15.0 15.0 15.0 15.0 15.0 15.0 15.0 15.0 15.0 15.0 15.0 15.0 15.0 15.0 15.0 15.0 15.0 15.0 15.0 15.0 15.0 15.0 15.0 15.0 15.0
15.0 15.0 15.0 15.0 15.0 15.0 15.0 15.0 15.0 15.0 15.0 15.0 15.0 15.0 15.0 15.0 15.0 15.0 15.0 15.0 15.0 15.0 15.0 15.0 15.0 15.0 15.0 15.0 15.0 15.0 15.0 15.0 15.0 15.0 15.0 15.0 15.0 15.0 15.0 15.0 15.0 15.0 15.0 15.0 15.0 15.0 15.0
15.0 14.9 15.0 15.0 15.0 15.0 15.0 15.0 15.0 15.0 15.0 15.0 15.0 15.0 15.0 15.0 15.0 15.0 15.0 15.0 15.0 15.0 15.0 15.0 15.0 15.0 15.0 15.0 15.0 15.0 15.0 15.0 15.0 15.0 15.0 15.0 15.0 15.0 15.0 15.0 15.0 15.0 15.0 15.0 15.0 15.0 15.0
12.2 15.0 15.0 11.9 15.0 13.5 14.5 15.0 15.0 15.0 15.0 15.0 15.0 15.0 15.0 15.0 15.0 15.0 15.0 15.0 15.0 15.0 15.0 15.0 15.0 15.0 1.3 15.0 15.0 15.0 15.0 15.0 15.0 15.0 15.0 15.0 15.0 15.0 15.0 15.0 15.0 15.0 15.0 15.0 15.0 15.0 15.0
15.0 15.0 15.0 14.3 15.0 15.0 15.0 15.0 4.5 14.3 9.9 15.0 15.0 15.0 15.0 15.0 15.0 15.0 15.0 15.0 15.0 15.0 15.0 15.0 8.2 15.0 15.0 15.0 15.0 15.0 15.0 15.0 15.0 15.0 15.0 15.0 15.0 15.0 15.0 15.0 15.0 15.0 15.0 15.0 15.0 15.0 15.0
15.0 15.0 9.2 15.0 15.0 15.0 14.6 15.0 13.3 13.6 14.3 9.9 15.0 15.0 15.0 15.0 15.0 15.0 15.0 15.0 15.0 15.0 15.0 15.0 15.0 15.0 15.0 15.0 15.0 15.0 15.0 15.0 15.0 15.0 15.0 15.0 15.0 15.0 15.0 15.0 15.0 15.0 15.0 15.0 15.0 15.0 15.0
15.0 15.0 13.1 15.0 15.0 15.0 15.0 15.0 15.0 15.0 15.0 15.0 15.0 15.0 12.0 14.8 15.0 15.0 15.0 15.0 15.0 15.0 15.0 15.0 15.0 15.0 15.0 15.0 15.0 15.0 15.0 15.0 15.0 15.0 15.0 15.0 15.0 15.0 15.0 15.0 15.0 15.0 15.0 15.0 15.0 15.0 15.0
15.0 15.0 15.0 15.0 15.0 12.2 15.0 15.0 15.0 11.6 15.0 15.0 15.0 4.0 14.8 14.6 15.0 15.0 15.0 15.0 15.0 15.0 15.0 15.0 15.0 15.0 15.0 15.0 15.0 15.0 15.0 15.0 15.0 15.0 15.0 15.0 15.0 15.0 15.0 15.0 15.0 15.0 15.0 15.0 15.0 15.0 15.0
15.0 15.0 15.0 15.0 15.0 15.0 10.8 14.9 9.5 14.3 15.0 15.0 7.7 14.6 6.9 15.0 15.0 15.0 15.0 15.0 15.0 15.0 15.0 15.0 15.0 15.0 15.0 15.0 15.0 15.0 15.0 15.0 15.0 15.0 15.0 15.0 15.0 15.0 15.0 15.0 15.0 15.0 15.0 15.0 15.0 15.0 15.0
15.0 15.0 15.0 15.0 15.0 15.0 15.0 15.0 15.0 15.0 13.0 9.8 14.9 6.4 3.5 11.8 15.0 15.0 15.0 15.0 15.0 15.0 15.0 15.0 15.0 15.0 15.0 15.0 15.0 15.0 15.0 15.0 15.0 15.0 15.0 15.0 15.0 15.0 15.0 15.0 15.0 15.0 15.0 15.0 15.0 15.0 15.0
15.0 14.8 15.0 15.0 15.0 15.0 15.0 13.1 9.6 13.4 12.0 15.0 8.1 15.0 7.1 10.2 15.0 15.0 15.0 15.0 15.0 15.0 14.2 15.0 15.0 15.0 15.0 15.0 15.0 15.0 15.0 15.0 15.0 15.0 15.0 15.0 15.0 15.0 15.0 15.0 15.0 15.0 15.0 15.0 15.0 15.0 15.0
15.0 15.0 15.0 15.0 15.0 15.0 13.8 12.7 9.8 10.2 14.4 8.7 14.6 14.4 15.0 12.4 15.0 15.0 15.0 15.0 15.0 15.0 15.0 15.0 15.0 15.0 15.0 15.0 15.0 15.0 15.0 15.0 15.0 15.0 15.0 15.0 15.0 15.0 15.0 15.0 15.0 15.0 15.0 15.0 15.0 15.0 15.0
15.0 15.0 15.0 15.0 14.0 8.1 8.4 15.0 9.3 9.9 15.0 14.8 13.6 15.0 15.0 15.0 15.0 15.0 15.0 15.0 15.0 15.0 15.0 15.0 15.0 15.0 15.0 15.0 15.0 15.0 15.0 15.0 15.0 15.0 15.0 15.0 15.0 15.0 15.0 15.0 15.0 15.0 15.0 15.0 15.0 9.1 15.0
15.0 15.0 15.0 15.0 10.3 14.6 14.8 11.8 15.0 12.6 10.7 7.5 15.0 12.7 15.0 15.0 15.0 15.0 15.0 4.7 0.5 8.4 15.0 15.0 15.0 15.0 15.0 15.0 15.0 15.0 15.0 15.0 15.0 15.0 15.0 15.0 15.0 15.0 15.0 15.0 15.0 15.0 15.0 15.0 15.0 15.0 15.0
15.0 15.0 15.0 14.8 9.8 15.0 15.0 15.0 9.0 6.5 14.5 13.4 15.0 15.0 15.0 15.0 15.0 15.0 15.0 15.0 11.5 2.8 15.0 15.0 15.0 15.0 15.0 15.0 15.0 15.0 15.0 15.0 15.0 15.0 15.0 15.0 15.0 15.0 15.0 15.0 15.0 15.0 15.0 15.0 15.0 15.0 14.9
15.0 15.0 15.0 9.6 15.0 14.5 15.0 8.7 8.8 15.0 15.0 13.7 6.7 15.0 15.0 15.0 15.0 15.0 15.0 15.0 15.0 15.0 15.0 15.0 15.0 15.0 15.0 15.0 15.0 15.0 15.0 15.0 15.0 15.0 15.0 15.0 15.0 15.0 15.0 15.0 15.0 15.0 15.0 12.0 5.2 0.6 1.6
15.0 15.0 15.0 11.8 15.0 10.0 9.1 13.4 15.0 15.0 15.0 15.0 11.4 15.0 15.0 15.0 15.0 15.0 15.0 15.0 15.0 15.0 15.0 15.0 15.0 15.0 15.0 15.0 15.0 15.0 15.0 15.0 15.0 15.0 15.0 15.0 15.0 15.0 15.0 15.0 15.0 15.0 7.9 15.0 15.0 10.7 11.3
15.0 15.0 9.0 10.1 10.9 6.7 15.0 14.9 15.0 15.0 15.0 15.0 15.0 15.0 15.0 15.0 15.0 15.0 15.0 15.0 15.0 15.0 15.0 12.9 15.0 15.0 15.0 15.0 15.0 15.0 15.0 15.0 15.0 15.0 15.0 15.0 15.0 5.6 15.0 15.0 15.0 15.0 15.0 14.2 0.2 0.1 15.0
15.0 7.8 11.0 8.1 8.8 12.4 14.9 9.2 14.9 15.0 15.0 15.0 15.0 15.0 15.0 15.0 12.8 10.3 15.0 15.0 15.0 13.0 8.7 15.0 15.0 15.0 15.0 15.0 15.0 15.0 15.0 15.0 15.0 15.0 15.0 15.0 15.0 8.1 15.0 3.2 10.3 15.0 3.7 0.0 0.1 0.1 0.2
13.0 5.2 6.2 7.5 6.4 11.3 4.9 15.0 15.0 15.0 15.0 15.0 11.8 1.6 11.1 15.0 15.0 14.7 15.0 15.0 15.0 15.0 15.0 15.0 15.0 15.0 15.0 15.0 15.0 15.0 15.0 15.0 15.0 15.0 15.0 15.0 15.0 15.0 15.0 15.0 15.0 8.5 13.7 0.2 0.1 0.2 2.1
5.0 11.5 10.1 6.1 14.4 9.0 15.0 8.0 14.8 15.0 15.0 15.0 15.0 15.0 15.0 12.2 15.0 15.0 15.0 15.0 15.0 15.0 15.0 15.0 15.0 15.0 15.0 15.0 15.0 15.0 15.0 15.0 15.0 15.0 15.0 15.0 1.4 15.0 15.0 15.0 7.4 0.1 0.1 0.2 0.0 3.7 0.1
4.8 3.8 5.3 14.1 10.6 7.4 7.2 9.6 15.0 15.0 15.0 15.0 15.0 15.0 15.0 15.0 15.0 15.0 15.0 15.0 15.0 15.0 15.0 15.0 15.0 15.0 15.0 15.0 15.0 15.0 14.8 13.4 15.0 15.0 14.6 0.0 0.5 0.6 2.1 14.9 0.1 0.1 0.1 0.2 0.3 0.1 0.1
4.2 5.8 5.9 6.5 4.1 5.2 8.7 15.0 15.0 15.0 15.0 15.0 15.0 15.0 15.0 15.0 15.0 15.0 15.0 15.0 15.0 15.0 15.0 15.0 15.0 15.0 15.0 15.0 15.0 15.0 15.0 15.0 15.0 13.7 0.7 0.2 0.1 0.1 0.1 5.9 0.8 0.8 0.1 0.1 0.4 2.7 2.7
3.0 3.4 4.2 5.9 7.9 15.0 15.0 15.0 15.0 15.0 15.0 15.0 15.0 15.0 15.0 15.0 15.0 15.0 15.0 15.0 15.0 15.0 15.0 15.0 15.0 15.0 15.0 15.0 15.0 15.0 7.8 15.0 15.0 15.0 0.1 0.1 0.1 0.1 0.1 0.1 0.2 0.3 0.1 10.3 12.3 15.0 15.0
6.9 11.1 15.0 15.0 15.0 15.0 15.0 15.0 15.0 15.0 15.0 15.0 15.0 15.0 15.0 15.0 15.0 15.0 15.0 15.0 15.0 15.0 15.0 15.0 15.0 15.0 15.0 15.0 15.0 15.0 8.9 0.4 0.2 0.0 0.0 0.0 0.1 0.1 0.1 0.1 0.2 0.1 5.1 2.3 3.0 0.7 8.1
15.0 15.0 15.0 15.0 15.0 15.0 15.0 15.0 15.0 15.0 15.0 15.0 15.0 15.0 15.0 15.0 15.0 15.0 15.0 15.0 15.0 15.0 15.0 15.0 15.0 15.0 15.0 4.7 14.0 0.5 5.9 0.8 0.9 0.5 15.0 0.0 0.0 0.0 0.1 15.0 3.1 2.2 15.0 15.0 14.4 2.4 3.9
15.0 15.0 15.0 15.0 15.0 15.0 15.0 15.0 15.0 15.0 15.0 15.0 15.0 15.0 15.0 15.0 15.0 15.0 15.0 15.0 15.0 15.0 15.0 15.0 15.0 15.0 15.0 15.0 7.6 4.0 5.4 15.0 14.1 14.8 0.9 0.1 0.1 0.1 11.0 13.7 0.7 6.3 5.2 13.0 1.3 10.7 4.1
15.0 15.0 15.0 15.0 15.0 15.0 15.0 15.0 15.0 15.0 15.0 15.0 15.0 15.0 15.0 15.0 15.0 15.0 15.0 15.0 15.0 15.0 15.0 15.0 15.0 15.0 15.0 14.6 15.0 12.9 2.7 2.6 6.3 13.1 0.3 0.2 0.1 0.2 12.9 15.0 9.4 15.0 8.6 7.1 0.8 0.7 3.9
15.0 15.0 15.0 15.0 15.0 15.0 15.0 15.0 15.0 15.0 15.0 15.0 15.0 15.0 15.0 15.0 15.0 15.0 15.0 15.0 15.0 15.0 15.0 15.0 15.0 15.0 15.0 2.9 15.0 4.8 10.7 15.0 12.6 4.8 15.0 3.2 9.1 1.6 0.4 2.0 0.7 0.2 0.3 0.6 15.0 9.4 0.7

GFSGBSN_sfc_vis_111.txt.gz
Visibility
15.0 15.0 15.0 15.0 15.0 15.0 15.0 15.0 15.0 15.0 15.0 15.0 15.0 15.0 15.0 15.0 15.0 15.0 15.0 15.0 15.0 15.0 15.0 15.0 15.0 15.0 15.0 15.0 15.0 15.0 15.0 15.0 15.0 15.0 15.0 15.0 15.0 15.0 15.0 15.0 15.0 15.0 15.0 15.0 15.0 15.0 15.0
13.4 15.0 13.7 15.0 15.0 15.0 15.0 15.0 15.0 15.0 15.0 15.0 15.0 15.0 15.0 15.0 15.0 15.0 15.0 15.0 15.0 15.0 15.0 15.0 15.0 15.0 15.0 15.0 15.0 15.0 15.0 15.0 15.0 15.0 15.0 15.0 15.0 15.0 15.0 15.0 15.0 15.0 15.0 15.0 15.0 15.0 15.0
11.0 10.5 15.0 15.0 15.0 15.0 15.0 15.0 15.0 15.0 15.0 15.0 15.0 15.0 15.0 15.0 15.0 15.0 15.0 15.0 15.0 15.0 15.0 15.0 15.0 15.0 15.0 15.0 15.0 15.0 15.0 15.0 15.0 15.0 15.0 15.0 15.0 15.0 15.0 15.0 15.0 15.0 15.0 15.0 15.0 15.0 15.0
15.0 15.0 15.0 13.8 15.0 9.9 15.0 15.0 15.0 14.8 15.0 15.0 15.0 15.0 15.0 15.0 15.0 15.0 15.0 15.0 15.0 15.0 15.0 15.0 15.0 15.0 15.0 15.0 15.0 15.0 15.0 15.0 15.0 15.0 15.0 15.0 15.0 15.0 15.0 15.0 15.0 15.0 15.0 15.0 15.0 15.0 15.0
15.0 15.0 15.0 15.0 15.0 15.0 15.0 11.9 11.6 11.9 5.4 14.2 15.0 15.0 7.5 15.0 12.3 15.0 15.0 15.0 15.0 15.0 15.0 15.0 15.0 15.0 15.0 15.0 15.0 15.0 15.0 15.0 15.0 15.0 15.0 15.0 15.0 15.0 15.0 15.0 15.0 15.0 15.0 15.0 15.0 15.0 15.0
15.0 15.0 15.0 15.0 15.0 14.7 15.0 15.0 6.7 15.0 7.0 14.4 11.8 12.2 11.3 10.4 15.0 15.0 15.0 15.0 15.0 15.0 15.0 15.0 15.0 15.0 15.0 15.0 15.0 15.0 15.0 15.0 15.0 15.0 15.0 15.0 15.0 15.0 15.0 15.0 15.0 15.0 15.0 15.0 15.0 15.0 15.0
15.0 15.0 15.0 15.0 15.0 15.0 13.3 15.0 15.0 12.1 15.0 15.0 12.8 12.4 14.2 8.9 15.0 15.0 15.0 15.0 15.0 15.0 15.0 15.0 15.0 15.0 15.0 15.0 15.0 15.0 15.0 15.0 15.0 15.0 15.0 15.0 15.0 15.0 15.0 15.0 15.0 15.0 15.0 15.0 15.0 15.0 15.0
15.0 15.0 15.0 15.0 15.0 15.0 15.0 14.8 15.0 15.0 15.0 15.0 11.3 12.2 15.0 15.0 15.0 15.0 15.0 15.0 15.0 15.0 15.0 15.0 15.0 15.0 15.0 15.0 15.0 15.0 15.0 15.0 15.0 15.0 15.0 15.0 15.0 15.0 15.0 15.0 15.0 15.0 15.0 15.0 15.0 15.0 15.0
15.0 13.1 15.0 15.0 15.0 15.0 15.0 15.0 15.0 15.0 15.0 15.0 15.0 10.1 15.0 15.0 15.0 15.0 15.0 15.0 15.0 15.0 15.0 15.0 15.0 15.0 15.0 15.0 15.0 15.0 15.0 15.0 15.0 15.0 15.0 15.0 15.0 15.0 15.0 15.0 15.0 15.0 15.0 15.0 15.0 15.0 15.0
15.0 15.0 15.0 15.0 15.0 15.0 15.0 14.9 15.0 15.0 15.0 15.0 10.8 14.7 15.0 15.0 15.0 15.0 15.0 15.0 15.0 15.0 1.3 15.0 15.0 15.0 15.0 15.0 15.0 15.0 15.0 15.0 15.0 15.0 15.0 15.0 15.0 15.0 15.0 15.0 15.0 15.0 15.0 15.0 15.0 15.0 15.0
15.0 15.0 15.0 15.0 15.0 15.0 15.0 15.0 14.0 14.9 14.8 10.3 14.4 15.0 15.0 15.0 15.0 15.0 15.0 13.2 15.0 15.0 3.5 15.0 15.0 15.0 15.0 15.0 15.0 15.0 15.0 15.0 15.0 15.0 15.0 15.0 15.0 15.0 15.0 15.0 15.0 15.0 15.0 15.0 15.0 15.0 15.0
15.0 15.0 15.0 15.0 15.0 15.0 15.0 11.8 15.0 8.7 12.0 10.2 15.0 9.0 15.0 15.0 15.0 15.0 15.0 15.0 15.0 7.9 15.0 15.0 15.0 15.0 15.0 15.0 15.0 15.0 15.0 15.0 15.0 15.0 15.0 15.0 15.0 15.0 15.0 15.0 15.0 15.0 6.4 15.0 15.0 15.0 15.0
15.0 15.0 15.0 15.0 15.0 15.0 15.0 14.8 14.7 9.9 6.8 9.1 9.5 14.3 14.2 15.0 15.0 15.0 15.0 15.0 2.2 3.7 14.9 15.0 15.0 15.0 15.0 15.0 15.0 15.0 15.0 15.0 15.0 15.0 15.0 15.0 15.0 15.0 15.0 15.0 15.0 15.0 15.0 15.0 15.0 15.0 15.0
15.0 15.0 15.0 15.0 15.0 15.0 15.0 15.0 12.6 14.1 11.6 6.4 9.4 14.3 14.7 15.0 15.0 15.0 15.0 6.7 0.9 14.4 15.0 8.9 5.0 7.7 15.0 15.0 15.0 15.0 15.0 15.0 15.0 15.0 15.0 15.0 15.0 15.0 15.0 15.0 15.0 15.0 15.0 15.0 15.0 15.0 15.0
15.0 15.0 15.0 15.0 15.0 15.0 15.0 12.7 11.0 12.9 7.3 15.0 9.2 11.8 15.0 15.0 15.0 15.0 15.0 15.0 15.0 15.0 15.0 15.0 15.0 15.0 10.0 15.0 15.0 15.0 15.0 15.0 15.0 15.0 15.0 15.0 15.0 15.0 15.0 15.0 15.0 15.0 15.0 15.0 15.0 15.0 15.0
15.0 15.0 15.0 15.0 15.0 15.0 15.0 11.3 3.7 6.3 15.0 15.0 15.0 13.7 13.2 15.0 14.7 13.0 15.0 15.0 15.0 15.0 15.0 15.0 15.0 15.0 15.0 15.0 15.0 15.0 15.0 15.0 15.0 15.0 15.0 15.0 15.0 15.0 15.0 15.0 15.0 15.0 15.0 10.1 13.6 1.9 9.0
15.0 15.0 15.0 15.0 15.0 15.0 15.0 5.6 4.6 11.8 15.0 15.0 14.6 0.8 15.0 15.0 15.0 15.0 15.0 15.0 15.0 15.0 15.0 7.4 10.6 15.0 15.0 15.0 15.0 15.0 15.0 15.0 15.0 15.0 15.0 15.0 15.0 15.0 15.0 15.0 15.0 15.0 15.0 15.0 13.8 15.0 2.5
15.0 15.0 15.0 15.0 15.0 15.0 10.0 5.3 14.9 9.9 15.0 15.0 11.9 0.1 7.2 13.8 3.9 14.8 15.0 15.0 15.0 15.0 15.0 15.0 15.0 15.0 15.0 6.0 15.0 15.0 15.0 15.0 15.0 15.0 15.0 15.0 15.0 15.0 15.0 15.0 15.0 15.0 15.0 0.9 0.4 3.3 0.4
15.0 15.0 15.0 15.0 15.0 15.0 8.0 6.6 15.0 11.3 15.0 10.0 0.0 0.0 14.9 15.0 0.1 7.1 15.0 15.0 15.0 15.0 15.0 15.0 15.0 4.1 9.1 15.0 15.0 15.0 15.0 15.0 15.0 15.0 15.0 15.0 15.0 15.0 11.8 2.7 14.4 15.0 15.0 8.6 0.0 0.3 6.9
15.0 15.0 15.0 15.0 15.0 11.4 14.0 13.4 14.7 15.0 13.7 15.0 7.8 0.2 5.3 15.0 15.0 15.0 15.0 15.0 15.0 15.0 15.0 15.0 10.2 15.0 15.0 15.0 15.0 15.0 15.0 15.0 15.0 15.0 15.0 15.0 15.0 15.0 15.0 15.0 15.0 15.0 15.0 11.0 0.1 0.2 15.0
15.0 15.0 15.0 11.9 10.8 7.4 11.2 14.8 13.0 14.2 13.3 15.0 15.0 6.7 11.8 3.8 6.3 15.0 15.0 15.0 15.0 14.1 9.4 15.0 15.0 15.0 15.0 15.0 15.0 15.0 15.0 15.0 15.0 15.0 15.0 15.0 13.4 15.0 15.0 15.0 15.0 0.4 6.4 0.5 0.6 11.4 0.7
15.0 14.8 6.8 8.4 6.9 9.2 10.1 15.0 14.8 8.9 15.0 15.0 15.0 15.0 15.0 15.0 15.0 10.1 7.2 15.0 15.0 14.4 15.0 15.0 15.0 15.0 15.0 15.0 15.0 15.0 15.0 15.0 15.0 15.0 15.0 14.7 12.5 0.6 9.0 15.0 8.7 1.9 0.6 0.1 0.2 0.1 0.2
5.2 5.8 8.7 5.1 6.4 7.0 15.0 6.3 8.6 8.8 15.0 15.0 15.0 15.0 15.0 14.7 15.0 15.0 15.0 15.0 15.0 15.0 15.0 15.0 15.0 15.0 15.0 15.0 15.0 15.0 15.0 15.0 15.0 15.0 1.2 0.2 1.7 2.8 4.7 0.9 11.0 0.1 0.1 0.1 0.1 0.2 0.1
6.8 7.6 3.7 11.7 12.8 9.4 4.1 6.5 6.8 15.0 15.0 15.0 15.0 15.0 10.2 11.4 15.0 15.0 15.0 15.0 15.0 15.0 15.0 15.0 15.0 15.0 15.0 15.0 15.0 15.0 7.9 15.0 15.0 15.0 6.6 0.1 0.1 5.8 1.6 0.1 0.1 0.1 0.3 11.5 6.5 6.3 11.0
3.3 6.6 9.0 9.2 3.1 8.9 8.9 6.7 9.2 15.0 15.0 15.0 15.0 15.0 15.0 15.0 15.0 15.0 15.0 15.0 15.0 15.0 15.0 15.0 15.0 15.0 15.0 15.0 15.0 1.1 1.6 2.0 3.6 4.8 0.0 0.0 0.1 0.9 0.1 0.2 0.2 0.1 3.2 0.3 0.9 0.4 1.4
3.0 2.5 2.7 6.6 7.3 7.4 9.6 14.7 15.0 15.0 15.0 15.0 15.0 15.0 15.0 15.0 15.0 15.0 15.0 15.0 15.0 15.0 15.0 15.0 15.0 15.0 15.0 15.0 15.0 0.3 5.4 14.4 1.8 0.4 0.0 0.0 0.0 0.7 1.8 0.4 1.9 15.0 15.0 15.0 14.5 1.3 6.0
4.3 6.9 9.6 12.8 15.0 15.0 15.0 15.0 15.0 15.0 15.0 15.0 15.0 15.0 15.0 15.0 15.0 15.0 15.0 15.0 15.0 15.0 15.0 15.0 15.0 15.0 15.0 15.0 15.0 14.0 10.5 15.0 15.0 15.0 1.4 0.7 0.1 0.2 0.5 15.0 13.3 15.0 15.0 14.2 0.4 3.9 14.0
13.3 13.7 15.0 15.0 15.0 15.0 15.0 15.0 15.0 15.0 15.0 15.0 15.0 15.0 15.0 15.0 15.0 15.0 15.0 15.0 15.0 15.0 15.0 15.0 15.0 15.0 15.0 15.0 15.0 15.0 10.6 2.5 9.3 14.3 0.2 0.1 0.1 0.1 1.2 15.0 12.4 15.0 8.2 4.5 4.6 4.6 15.0
15.0 15.0 15.0 15.0 15.0 15.0 15.0 15.0 15.0 15.0 15.0 15.0 15.0 15.0 15.0 15.0 15.0 15.0 15.0 15.0 15.0 15.0 15.0 15.0 15.0 15.0 15.0 6.3 15.0 15.0 5.9 15.0 15.0 10.5 15.0 0.2 0.1 0.2 0.4 11.3 3.6 0.4 0.9 10.0 15.0 14.0 15.0

GFSGBSN_sfc_vis_117.txt.gz
Visibility
7.1 3.4 13.5 15.0 7.5 14.7 15.0 15.0 15.0 15.0 15.0 15.0 15.0 15.0 15.0 15.0 15.0 15.0 15.0 15.0 15.0 15.0 15.0 15.0 15.0 15.0 15.0 15.0 15.0 15.0 15.0 15.0 15.0 15.0 15.0 15.0 15.0 15.0 15.0 15.0 15.0 15.0 15.0 15.0 15.0 15.0 15.0
11.8 15.0 2.5 10.1 7.9 3.7 2.1 6.0 6.5 4.6 15.0 15.0 15.0 15.0 15.0 15.0 15.0 15.0 15.0 15.0 15.0 15.0 15.0 15.0 15.0 15.0 15.0 15.0 15.0 15.0 15.0 15.0 15.0 15.0 15.0 15.0 15.0 15.0 15.0 15.0 15.0 15.0 15.0 15.0 15.0 15.0 15.0
15.0 15.0 15.0 14.7 15.0 14.8 10.5 3.2 10.1 5.5 6.6 9.7 10.3 14.1 15.0 15.0 15.0 15.0 15.0 15.0 15.0 15.0 15.0 15.0 15.0 15.0 15.0 15.0 15.0 15.0 15.0 15.0 15.0 15.0 15.0 15.0 15.0 15.0 15.0 15.0 15.0 15.0 15.0 15.0 15.0 15.0 15.0
15.0 15.0 15.0 15.0 15.0 15.0 15.0 15.0 14.8 9.0 7.4 5.9 13.8 15.0 7.5 15.0 14.8 15.0 15.0 15.0 15.0 15.0 15.0 15.0 15.0 15.0 15.0 15.0 15.0 15.0 15.0 15.0 15.0 15.0 15.0 15.0 15.0 15.0 15.0 15.0 15.0 15.0 15.0 15.0 15.0 15.0 15.0
15.0 15.0 15.0 15.0 15.0 15.0 15.0 15.0 15.0 15.0 15.0 7.9 15.0 10.6 4.7 13.8 8.0 15.0 15.0 15.0 15.0 15.0 15.0 15.0 15.0 15.0 15.0 15.0 15.0 15.0 15.0 15.0 15.0 15.0 15.0 15.0 15.0 15.0 15.0 15.0 15.0 15.0 15.0 15.0 15.0 15.0 15.0
15.0 15.0 15.0 15.0 15.0 15.0 15.0 15.0 15.0 15.0 15.0 15.0 15.0 14.5 15.0 14.7 15.0 15.0 14.6 15.0 15.0 15.0 1.7 15.0 15.0 15.0 15.0 15.0 15.0 15.0 15.0 15.0 15.0 15.0 15.0 15.0 15.0 15.0 15.0 15.0 15.0 15.0 15.0 15.0 15.0 15.0 15.0
15.0 15.0 15.0 15.0 15.0 15.0 15.0 15.0 15.0 15.0 15.0 15.0 15.0 15.0 15.0 15.0 13.3 11.3 15.0 15.0 15.0 15.0 15.0 15.0 15.0 15.0 15.0 15.0 15.0 15.0 15.0 15.0 15.0 15.0 15.0 15.0 15.0 15.0 15.0 15.0 15.0 15.0 15.0 15.0 15.0 15.0 15.0
15.0 15.0 15.0 15.0 15.0 15.0 15.0 15.0 15.0 15.0 15.0 15.0 15.0 15.0 15.0 15.0 15.0 15.0 15.0 15.0 15.0 15.0 15.0 15.0 15.0 15.0 15.0 15.0 15.0 15.0 15.0 15.0 15.0 15.0 15.0 15.0 15.0 15.0 15.0 15.0 15.0 15.0 15.0 15.0 15.0 15.0 15.0
15.0 15.0 15.0 15.0 15.0 15.0 15.0 15.0 15.0 15.0 15.0 15.0 15.0 15.0 13.4 15.0 15.0 15.0 15.0 15.0 15.0 15.0 15.0 15.0 15.0 15.0 15.0 15.0 15.0 15.0 15.0 15.0 15.0 15.0 15.0 15.0 15.0 15.0 15.0 15.0 15.0 15.0 15.0 15.0 15.0 15.0 15.0
15.0 15.0 15.0 15.0 15.0 15.0 15.0 15.0 15.0 15.0 15.0 15.0 15.0 14.0 14.8 15.0 14.4 15.0 15.0 15.0 15.0 15.0 15.0 15.0 15.0 15.0 15.0 15.0 15.0 15.0 15.0 15.0 15.0 15.0 15.0 15.0 15.0 15.0 15.0 15.0 15.0 15.0 15.0 15.0 15.0 15.0 15.0
15.0 15.0 15.0 15.0 15.0 15.0 15.0 15.0 15.0 15.0 15.0 15.0 14.7 11.2 15.0 14.7 15.0 15.0 15.0 15.0 15.0 15.0 4.8 15.0 15.0 15.0 15.0 15.0 15.0 15.0 15.0 15.0 15.0 15.0 15.0 15.0 15.0 15.0 15.0 15.0 15.0 15.0 15.0 15.0 15.0 15.0 15.0
15.0 15.0 15.0 15.0 15.0 15.0 15.0 15.0 15.0 15.0 15.0 15.0 13.5 15.0 15.0 15.0 15.0 15.0 15.0 15.0 15.0 13.4 2.4 15.0 15.0 15.0 15.0 15.0 15.0 15.0 15.0 15.0 15.0 15.0 15.0 15.0 15.0 15.0 15.0 15.0 15.0 15.0 15.0 15.0 15.0 15.0 15.0
15.0 15.0 15.0 15.0 15.0 15.0 15.0 15.0 15.0 15.0 15.0 10.5 9.9 15.0 15.0 15.0 15.0 15.0 15.0 15.0 0.1 11.6 15.0 15.0 15.0 15.0 15.0 15.0 15.0 15.0 15.0 15.0 15.0 15.0 15.0 15.0 15.0 15.0 15.0 15.0 15.0 15.0 15.0 15.0 15.0 15.0 15.0
15.0 15.0 15.0 15.0 15.0 15.0 15.0 15.0 15.0 15.0 15.0 4.0 14.7 14.0 15.0 15.0 15.0 15.0 15.0 2.3 0.1 15.0 15.0 15.0 15.0 15.0 15.0 15.0 15.0 15.0 15.0 15.0 15.0 15.0 15.0 15.0 15.0 15.0 15.0 15.0 15.0 15.0 15.0 15.0 15.0 15.0 15.0
15.0 15.0 15.0 15.0 15.0 15.0 15.0 15.0 15.0 15.0 15.0 9.1 6.1 3.1 15.0 15.0 15.0 15.0 13.5 0.0 15.0 15.0 15.0 15.0 15.0 15.0 15.0 15.0 15.0 15.0 15.0 15.0 15.0 15.0 15.0 15.0 15.0 15.0 15.0 15.0 15.0 15.0 15.0 15.0 15.0 15.0 15.0
15.0 15.0 15.0 15.0 15.0 15.0 15.0 15.0 15.0 15.0 14.4 11.8 15.0 15.0 2.8 15.0 15.0 15.0 0.1 6.2 15.0 15.0 15.0 15.0 15.0 15.0 15.0 15.0 15.0 15.0 15.0 15.0 15.0 15.0 15.0 11.9 15.0 15.0 15.0 15.0 15.0 15.0 15.0 15.0 15.0 14.9 15.0
15.0 15.0 15.0 15.0 15.0 15.0 15.0 15.0 15.0 15.0 15.0 15.0 14.8 3.2 2.2 14.4 15.0 0.4 0.0 15.0 15.0 15.0 15.0 15.0 15.0 15.0 15.0 15.0 15.0 15.0 15.0 15.0 15.0 15.0 15.0 15.0 15.0 15.0 15.0 15.0 15.0 15.0 15.0 15.0 15.0 2.7 2.7
15.0 15.0 15.0 15.0 15.0 15.0 15.0 15.0 15.0 12.4 14.0 15.0 15.0 0.5 3.0 9.1 0.0 0.0 12.7 15.0 15.0 15.0 15.0 15.0 15.0 15.0 15.0 15.0 15.0 15.0 15.0 15.0 15.0 15.0 15.0 15.0 15.0 15.0 15.0 15.0 15.0 15.0 15.0 15.0 14.6 5.3 4.1
15.0 15.0 15.0 15.0 15.0 15.0 15.0 15.0 15.0 6.0 15.0 15.0 0.3 0.0 1.5 5.1 0.1 8.2 15.0 15.0 15.0 15.0 15.0 15.0 15.0 15.0 15.0 15.0 15.0 15.0 15.0 15.0 15.0 15.0 15.0 15.0 15.0 15.0 15.0 13.4 15.0 2.9 15.0 15.0 5.7 3.1 4.7
15.0 15.0 15.0 15.0 15.0 15.0 15.0 15.0 15.0 11.9 14.4 15.0 0.6 0.1 0.0 0.0 0.0 15.0 15.0 15.0 15.0 15.0 15.0 15.0 15.0 15.0 15.0 15.0 15.0 15.0 15.0 15.0 15.0 15.0 15.0 13.0 15.0 15.0 14.3 4.0 6.2 2.5 11.0 15.0 15.0 9.8 14.8
15.0 15.0 15.0 15.0 15.0 15.0 15.0 15.0 15.0 13.8 9.3 15.0 7.2 6.0 12.3 0.0 0.0 13.6 15.0 15.0 15.0 15.0 15.0 15.0 15.0 15.0 15.0 15.0 15.0 15.0 15.0 15.0 15.0 15.0 15.0 15.0 15.0 15.0 15.0 15.0 15.0 15.0 15.0 15.0 10.9 12.1 0.3
15.0 15.0 15.0 15.0 15.0 15.0 15.0 15.0 15.0 8.0 10.7 14.9 0.0 15.0 15.0 15.0 15.0 15.0 6.2 15.0 15.0 15.0 15.0 15.0 15.0 15.0 15.0 15.0 15.0 15.0 15.0 15.0 15.0 15.0 15.0 15.0 11.2 15.0 15.0 15.0 15.0 15.0 15.0 10.0 14.9 14.1 15.0
14.1 15.0 15.0 15.0 15.0 12.1 13.8 15.0 15.0 7.4 10.2 6.0 15.0 15.0 15.0 15.0 15.0 8.7 15.0 15.0 15.0 15.0 15.0 15.0 15.0 15.0 15.0 15.0 15.0 15.0 15.0 15.0 15.0 15.0 15.0 15.0 10.7 3.4 4.4 7.1 15.0 1.7 4.8 15.0 0.4 13.0 0.9
14.8 13.5 15.0 15.0 15.0 11.5 14.4 15.0 12.9 13.4 14.6 15.0 15.0 15.0 15.0 15.0 14.7 15.0 15.0 15.0 15.0 15.0 0.1 15.0 15.0 15.0 15.0 15.0 15.0 15.0 15.0 15.0 15.0 15.0 15.0 7.3 0.4 1.5 3.2 12.9 0.3 2.4 15.0 13.3 1.7 5.7 12.5
14.5 15.0 14.6 15.0 8.2 7.0 15.0 14.5 11.8 15.0 15.0 15.0 15.0 15.0 15.0 15.0 14.9 14.0 15.0 15.0 15.0 15.0 15.0 15.0 15.0 15.0 15.0 15.0 15.0 5.7 5.8 3.7 13.9 14.9 15.0 4.4 1.7 0.2 0.7 1.6 1.9 6.1 11.3 9.6 0.9 0.5 4.9
15.0 4.7 10.7 15.0 9.0 14.8 14.7 11.8 8.1 9.4 8.8 15.0 15.0 15.0 15.0 15.0 15.0 15.0 15.0 15.0 15.0 5.0 9.3 15.0 15.0 15.0 15.0 15.0 7.8 6.2 6.0 15.0 2.9 11.9 15.0 9.7 4.1 0.2 1.0 2.1 1.5 13.2 15.0 15.0 15.0 0.1 15.0
15.0 4.1 13.5 15.0 15.0 14.4 12.9 7.1 13.6 6.0 6.0 12.5 15.0 10.3 15.0 15.0 15.0 15.0 15.0 15.0 15.0 15.0 15.0 15.0 15.0 15.0 15.0 15.0 8.9 5.9 1.2 12.6 0.9 1.3 5.4 0.0 0.0 0.3 9.5 2.2 6.0 15.0 15.0 15.0 0.3 0.2 15.0
15.0 15.0 15.0 15.0 15.0 15.0 8.5 5.6 4.7 7.8 8.4 12.9 15.0 14.5 4.7 15.0 10.7 14.9 15.0 15.0 15.0 15.0 15.0 15.0 14.3 15.0 15.0 12.7 3.7 9.5 2.3 5.0 8.8 6.8 5.8 5.0 1.1 0.8 6.4 0.6 0.3 15.0 15.0 9.4 6.6 15.0 15.0
15.0 9.9 7.8 6.9 8.4 5.6 7.7 13.4 14.7 11.3 15.0 15.0 10.5 14.5 14.1 13.5 14.4 15.0 15.0 15.0 15.0 15.0 15.0 15.0 15.0 15.0 15.0 15.0 11.7 1.3 15.0 15.0 4.8 4.8 15.0 4.7 14.3 0.3 14.9 1.1 14.4 14.8 14.4 15.0 15.0 15.0 15.0

GFSGBSN_sfc_vis_123.txt.gz
Visibility
6.4 11.9 15.0 15.0 15.0 15.0 15.0 15.0 15.0 15.0 15.0 15.0 15.0 15.0 15.0 15.0 15.0 15.0 15.0 15.0 15.0 15.0 15.0 15.0 15.0 15.0 15.0 15.0 15.0 15.0 15.0 15.0 15.0 15.0 15.0 15.0 15.0 15.0 15.0 15.0 15.0 15.0 15.0 15.0 15.0 15.0 15.0
15.0 11.7 9.9 12.9 5.2 7.1 11.3 11.0 8.6 15.0 13.0 15.0 14.6 14.0 8.6 15.0 15.0 15.0 11.6 15.0 15.0 15.0 15.0 15.0 15.0 15.0 15.0 15.0 15.0 15.0 15.0 15.0 15.0 15.0 15.0 15.0 15.0 15.0 15.0 15.0 15.0 15.0 15.0 15.0 15.0 15.0 15.0
15.0 15.0 15.0 11.3 15.0 15.0 15.0 15.0 3.0 7.0 8.0 5.7 3.3 15.0 12.4 10.6 8.3 7.4 9.6 15.0 15.0 15.0 15.0 15.0 15.0 15.0 15.0 15.0 15.0 15.0 15.0 15.0 15.0 15.0 15.0 15.0 15.0 15.0 15.0 15.0 15.0 15.0 15.0 15.0 15.0 15.0 15.0
15.0 15.0 15.0 15.0 15.0 15.0 15.0 15.0 15.0 13.8 8.5 4.6 4.4 8.6 9.9 15.0 14.1 11.9 4.9 15.0 12.4 15.0 15.0 15.0 15.0 15.0 15.0 15.0 15.0 15.0 15.0 15.0 15.0 15.0 15.0 15.0 15.0 15.0 15.0 15.0 15.0 15.0 15.0 15.0 15.0 15.0 15.0
15.0 15.0 15.0 15.0 15.0 15.0 15.0 15.0 15.0 15.0 15.0 14.8 15.0 15.0 6.9 3.3 14.4 15.0 15.0 13.3 15.0 15.0 15.0 15.0 15.0 15.0 15.0 15.0 15.0 15.0 15.0 15.0 15.0 15.0 15.0 15.0 15.0 15.0 15.0 15.0 15.0 15.0 15.0 15.0 15.0 15.0 15.0
15.0 15.0 15.0 15.0 15.0 15.0 15.0 15.0 15.0 15.0 15.0 15.0 15.0 15.0 15.0 15.0 5.8 10.8 15.0 9.3 15.0 15.0 15.0 15.0 15.0 15.0 15.0 15.0 15.0 15.0 15.0 15.0 15.0 15.0 15.0 15.0 15.0 15.0 15.0 15.0 15.0 15.0 15.0 15.0 15.0 15.0 15.0
15.0 15.0 15.0 15.0 15.0 15.0 15.0 15.0 15.0 15.0 15.0 15.0 15.0 15.0 15.0 15.0 13.8 13.9 15.0 15.0 15.0 15.0 15.0 15.0 15.0 15.0 15.0 15.0 15.0 15.0 15.0 15.0 15.0 15.0 15.0 15.0 15.0 15.0 15.0 15.0 15.0 15.0 15.0 15.0 15.0 15.0 15.0
15.0 15.0 15.0 15.0 15.0 15.0 15.0 15.0 15.0 15.0 15.0 15.0 15.0 15.0 15.0 15.0 15.0 13.6 15.0 15.0 15.0 15.0 15.0 15.0 15.0 15.0 15.0 15.0 15.0 15.0 15.0 15.0 15.0 15.0 15.0 15.0 15.0 15.0 15.0 15.0 15.0 15.0 15.0 15.0 15.0 15.0 15.0
15.0 15.0 15.0 15.0 15.0 15.0 15.0 15.0 15.0 15.0 15.0 15.0 15.0 15.0 15.0 15.0 13.2 11.6 15.0 15.0 15.0 15.0 15.0 15.0 15.0 15.0 15.0 15.0 15.0 15.0 15.0 15.0 15.0 15.0 15.0 15.0 15.0 15.0 15.0 15.0 15.0 15.0 15.0 15.0 15.0 15.0 15.0
15.0 15.0 15.0 15.0 15.0 15.0 15.0 15.0 15.0 15.0 15.0 15.0 15.0 10.8 15.0 15.0 10.5 15.0 15.0 15.0 15.0 15.0 15.0 15.0 15.0 15.0 15.0 15.0 15.0 15.0 15.0 15.0 15.0 15.0 15.0 15.0 15.0 15.0 15.0 15.0 15.0 15.0 15.0 15.0 15.0 15.0 15.0
15.0 15.0 15.0 15.0 15.0 15.0 15.0 15.0 15.0 15.0 15.0 15.0 15.0 7.0 15.0 15.0 15.0 15.0 15.0 15.0 15.0 15.0 15.0 15.0 15.0 15.0 15.0 15.0 15.0 15.0 15.0 15.0 15.0 15.0 15.0 15.0 15.0 15.0 15.0 15.0 15.0 15.0 15.0 15.0 15.0 15.0 15.0
15.0 15.0 15.0 15.0 15.0 15.0 15.0 15.0 15.0 15.0 15.0 15.0 9.5 15.0 15.0 12.2 15.0 15.0 15.0 15.0 15.0 15.0 1.1 15.0 15.0 15.0 15.0 15.0 15.0 15.0 15.0 15.0 15.0 15.0 15.0 15.0 15.0 15.0 15.0 15.0 15.0 15.0 15.0 15.0 15.0 15.0 15.0
15.0 15.0 15.0 15.0 15.0 15.0 15.0 15.0 15.0 15.0 15.0 15.0 15.0 12.8 14.9 15.0 15.0 15.0 15.0 15.0 0.3 4.2 15.0 15.0 15.0 15.0 15.0 15.0 15.0 15.0 15.0 15.0 15.0 15.0 15.0 15.0 15.0 15.0 15.0 15.0 15.0 15.0 15.0 15.0 15.0 15.0 15.0
15.0 15.0 15.0 15.0 15.0 15.0 15.0 15.0 15.0 15.0 15.0 15.0 15.0 10.2 12.3 13.7 7.6 14.9 12.9 5.3 0.1 15.0 15.0 15.0 15.0 15.0 15.0 15.0 15.0 15.0 15.0 15.0 15.0 15.0 15.0 15.0 15.0 15.0 15.0 15.0 15.0 15.0 15.0 15.0 15.0 15.0 15.0
12.7 13.2 15.0 15.0 15.0 15.0 15.0 15.0 15.0 15.0 15.0 15.0 10.9 0.2 7.3 13.7 8.7 11.2 12.4 0.0 15.0 15.0 15.0 15.0 15.0 15.0 15.0 15.0 15.0 15.0 15.0 15.0 15.0 15.0 15.0 15.0 15.0 15.0 15.0 15.0 15.0 15.0 15.0 15.0 15.0 15.0 15.0
15.0 15.0 14.0 15.0 15.0 15.0 15.0 15.0 15.0 15.0 15.0 15.0 0.7 9.7 13.0 15.0 14.1 11.2 3.2 9.1 15.0 15.0 15.0 15.0 15.0 15.0 15.0 15.0 15.0 15.0 15.0 15.0 15.0 15.0 15.0 15.0 15.0 15.0 15.0 15.0 15.0 15.0 15.0 15.0 15.0 15.0 15.0
12.8 14.7 14.6 15.0 15.0 15.0 15.0 15.0 15.0 15.0 15.0 12.1 15.0 0.1 0.9 15.0 8.4 0.7 0.0 7.2 15.0 15.0 15.0 15.0 15.0 15.0 15.0 15.0 15.0 15.0 15.0 15.0 15.0 15.0 15.0 15.0 15.0 15.0 15.0 15.0 15.0 15.0 15.0 15.0 15.0 15.0 15.0
13.4 13.7 14.1 11.1 15.0 10.8 15.0 15.0 15.0 15.0 15.0 14.7 14.1 0.2 0.2 15.0 0.1 0.0 0.1 3.1 15.0 15.0 15.0 15.0 14.4 15.0 15.0 15.0 15.0 15.0 15.0 15.0 15.0 15.0 15.0 15.0 15.0 15.0 15.0 15.0 15.0 15.0 15.0 15.0 15.0 15.0 15.0
15.0 15.0 15.0 15.0 15.0 15.0 15.0 15.0 14.9 13.4 13.2 13.5 0.2 0.0 10.1 12.0 0.1 0.1 12.4 15.0 15.0 15.0 15.0 15.0 9.9 15.0 15.0 15.0 15.0 15.0 15.0 15.0 15.0 15.0 15.0 15.0 15.0 15.0 15.0 15.0 15.0 15.0 15.0 15.0 15.0 15.0 15.0
15.0 15.0 15.0 15.0 15.0 15.0 15.0 15.0 15.0 12.9 14.3 12.1 0.3 0.1 0.0 0.1 0.1 4.0 15.0 15.0 15.0 15.0 15.0 15.0 15.0 15.0 15.0 15.0 15.0 15.0 15.0 15.0 15.0 15.0 15.0 15.0 15.0 15.0 15.0 15.0 15.0 15.0 15.0 15.0 15.0 0.5 10.8
15.0 15.0 15.0 15.0 15.0 15.0 15.0 15.0 15.0 15.0 15.0 3.6 0.8 3.5 11.3 0.0 0.0 0.2 15.0 15.0 15.0 15.0 15.0 14.7 15.0 15.0 15.0 15.0 15.0 15.0 15.0 15.0 15.0 15.0 15.0 15.0 15.0 15.0 15.0 15.0 15.0 15.0 15.0 15.0 15.0 15.0 11.9
15.0 15.0 15.0 9.9 15.0 12.3 15.0 15.0 15.0 15.0 15.0 0.5 0.1 14.8 15.0 15.0 15.0 14.8 0.3 0.0 15.0 15.0 15.0 15.0 15.0 15.0 15.0 15.0 15.0 15.0 15.0 15.0 15.0 15.0 15.0 15.0 15.0 15.0 15.0 15.0 15.0 15.0 15.0 15.0 15.0 15.0 15.0
15.0 15.0 15.0 15.0 13.6 12.6 11.2 15.0 15.0 15.0 8.2 4.1 2.8 15.0 15.0 15.0 15.0 6.1 15.0 15.0 15.0 15.0 15.0 15.0 15.0 15.0 15.0 15.0 15.0 15.0 15.0 15.0 15.0 15.0 15.0 15.0 15.0 15.0 15.0 15.0 15.0 14.9 15.0 15.0 15.0 15.0 15.0
15.0 15.0 15.0 15.0 15.0 15.0 12.2 15.0 15.0 15.0 15.0 14.8 8.3 15.0 11.6 14.8 15.0 15.0 15.0 15.0 15.0 15.0 12.7 9.3 15.0 15.0 15.0 15.0 15.0 15.0 15.0 15.0 15.0 15.0 15.0 15.0 15.0 15.0 15.0 15.0 2.0 15.0 15.0 15.0 15.0 15.0 15.0
15.0 14.3 15.0 15.0 15.0 12.8 11.7 9.2 14.6 15.0 15.0 14.6 8.6 10.3 13.9 15.0 15.0 15.0 15.0 15.0 15.0 15.0 14.4 15.0 15.0 15.0 15.0 15.0 15.0 15.0 15.0 15.0 15.0 15.0 15.0 15.0 15.0 15.0 9.3 14.1 15.0 15.0 15.0 15.0 15.0 15.0 15.0
15.0 15.0 14.7 13.1 15.0 15.0 12.8 11.7 15.0 15.0 12.4 14.2 13.9 12.1 8.9 11.7 15.0 15.0 15.0 15.0 15.0 15.0 15.0 8.9 15.0 15.0 15.0 15.0 15.0 15.0 15.0 15.0 15.0 15.0 15.0 15.0 15.0 15.0 2.1 0.2 1.8 15.0 15.0 15.0 15.0 14.3 15.0
14.9 15.0 11.8 10.7 13.4 14.1 13.9 15.0 15.0 14.2 15.0 13.4 15.0 15.0 3.9 6.4 15.0 10.2 15.0 15.0 15.0 15.0 15.0 15.0 15.0 15.0 15.0 15.0 15.0 15.0 15.0 15.0 15.0 15.0 3.4 0.1 4.9 1.2 3.9 1.2 15.0 15.0 15.0 15.0 4.4 14.9 15.0
5.9 7.1 6.5 5.8 5.8 15.0 15.0 15.0 15.0 13.9 13.0 10.2 15.0 15.0 5.4 4.7 7.9 13.9 15.0 15.0 15.0 15.0 15.0 15.0 15.0 15.0 15.0 6.1 15.0 15.0 12.9 15.0 7.7 1.0 15.0 9.6 6.3 0.7 4.3 0.2 1.1 15.0 15.0 13.3 15.0 8.5 15.0
10.0 4.6 6.0 9.1 5.5 10.1 15.0 15.0 15.0 13.8 15.0 9.6 15.0 15.0 15.0 5.6 14.6 10.2 4.7 10.2 14.1 15.0 15.0 15.0 15.0 15.0 15.0 15.0 15.0 15.0 6.2 15.0 15.0 0.1 15.0 14.7 15.0 15.0 15.0 15.0 15.0 15.0 15.0 15.0 15.0 15.0 15.0

GFSGBSN_sfc_vis_129.txt.gz
Visibility
12.6 15.0 14.8 15.0 15.0 15.0 15.0 15.0 15.0 15.0 15.0 15.0 15.0 15.0 15.0 15.0 15.0 15.0 15.0 15.0 15.0 15.0 15.0 15.0 15.0 15.0 15.0 15.0 15.0 15.0 15.0 15.0 15.0 15.0 15.0 15.0 15.0 15.0 15.0 15.0 15.0 15.0 15.0 15.0 15.0 15.0 15.0
13.0 12.7 5.3 13.3 11.7 14.9 14.7 12.3 15.0 15.0 15.0 15.0 15.0 15.0 15.0 15.0 15.0 15.0 15.0 15.0 15.0 15.0 15.0 15.0 15.0 15.0 15.0 15.0 15.0 15.0 15.0 15.0 15.0 15.0 15.0 15.0 15.0 15.0 15.0 15.0 15.0 15.0 15.0 15.0 15.0 15.0 15.0
5.5 15.0 12.0 15.0 4.7 8.9 15.0 14.7 5.3 15.0 15.0 15.0 15.0 15.0 15.0 15.0 15.0 15.0 15.0 15.0 15.0 15.0 15.0 15.0 15.0 15.0 15.0 15.0 15.0 15.0 15.0 15.0 15.0 15.0 15.0 15.0 15.0 15.0 15.0 15.0 15.0 15.0 15.0 15.0 15.0 15.0 15.0
15.0 13.1 13.2 12.0 15.0 15.0 5.2 13.5 15.0 6.8 9.0 15.0 15.0 11.4 5.8 14.3 15.0 15.0 15.0 15.0 14.7 15.0 15.0 15.0 15.0 15.0 15.0 15.0 15.0 15.0 15.0 15.0 15.0 15.0 15.0 15.0 15.0 15.0 15.0 15.0 15.0 15.0 15.0 15.0 15.0 15.0 15.0
15.0 15.0 15.0 15.0 15.0 15.0 15.0 15.0 13.3 15.0 15.0 15.0 15.0 15.0 7.6 0.4 1.3 13.9 15.0 12.6 15.0 15.0 15.0 15.0 15.0 15.0 15.0 15.0 15.0 15.0 15.0 15.0 15.0 15.0 15.0 15.0 15.0 15.0 15.0 15.0 15.0 15.0 15.0 15.0 15.0 15.0 15.0
15.0 15.0 15.0 15.0 15.0 15.0 15.0 15.0 15.0 15.0 15.0 15.0 15.0 15.0 11.8 0.2 0.3 1.0 13.0 15.0 13.7 15.0 15.0 15.0 15.0 15.0 15.0 15.0 15.0 15.0 15.0 15.0 15.0 15.0 15.0 15.0 15.0 15.0 15.0 15.0 15.0 15.0 15.0 15.0 15.0 15.0 15.0
15.0 15.0 15.0 15.0 15.0 15.0 15.0 15.0 15.0 15.0 15.0 15.0 15.0 15.0 15.0 15.0 0.6 1.1 13.9 12.4 15.0 15.0 15.0 15.0 15.0 15.0 15.0 15.0 15.0 15.0 15.0 15.0 15.0 15.0 15.0 15.0 15.0 15.0 15.0 15.0 15.0 15.0 15.0 15.0 15.0 15.0 15.0
15.0 15.0 15.0 15.0 15.0 15.0 15.0 15.0 15.0 15.0 15.0 15.0 15.0 15.0 15.0 15.0 0.3 15.0 15.0 15.0 15.0 15.0 15.0 15.0 15.0 15.0 15.0 15.0 15.0 15.0 15.0 15.0 15.0 15.0 15.0 15.0 15.0 15.0 15.0 15.0 15.0 15.0 15.0 15.0 15.0 15.0 15.0
14.7 15.0 15.0 15.0 15.0 15.0 15.0 15.0 15.0 15.0 15.0 15.0 15.0 15.0 15.0 8.0 11.1 11.7 15.0 15.0 15.0 15.0 15.0 15.0 15.0 15.0 15.0 15.0 15.0 15.0 15.0 15.0 15.0 15.0 15.0 15.0 15.0 15.0 15.0 15.0 15.0 15.0 15.0 15.0 15.0 15.0 15.0
15.0 15.0 15.0 15.0 15.0 15.0 15.0 15.0 15.0 15.0 15.0 15.0 15.0 15.0 1.9 14.6 3.0 13.5 15.0 15.0 15.0 15.0 15.0 15.0 15.0 15.0 15.0 15.0 15.0 15.0 15.0 15.0 15.0 15.0 15.0 15.0 15.0 15.0 15.0 15.0 15.0 15.0 15.0 15.0 15.0 15.0 15.0
15.0 15.0 15.0 15.0 15.0 15.0 15.0 15.0 15.0 15.0 15.0 15.0 15.0 5.4 15.0 15.0 15.0 15.0 15.0 15.0 15.0 15.0 15.0 15.0 15.0 15.0 15.0 15.0 15.0 15.0 15.0 15.0 15.0 15.0 15.0 15.0 15.0 15.0 15.0 15.0 15.0 15.0 15.0 15.0 15.0 15.0 15.0
9.6 14.6 15.0 15.0 15.0 15.0 15.0 15.0 15.0 15.0 15.0 15.0 14.6 15.0 15.0 15.0 15.0 15.0 15.0 15.0 15.0 15.0 0.6 15.0 15.0 15.0 15.0 15.0 15.0 15.0 15.0 15.0 15.0 15.0 15.0 15.0 15.0 15.0 15.0 15.0 15.0 15.0 15.0 15.0 15.0 15.0 15.0
13.7 15.0 14.6 15.0 15.0 15.0 15.0 15.0 15.0 15.0 15.0 15.0 15.0 15.0 14.6 15.0 15.0 15.0 15.0 15.0 0.1 8.6 15.0 15.0 15.0 15.0 15.0 15.0 15.0 15.0 15.0 15.0 15.0 15.0 15.0 15.0 15.0 15.0 15.0 15.0 15.0 15.0 15.0 15.0 15.0 15.0 15.0
9.8 11.8 15.0 15.0 15.0 15.0 15.0 15.0 15.0 15.0 15.0 15.0 15.0 10.0 15.0 14.5 15.0 15.0 15.0 0.8 0.3 15.0 15.0 15.0 15.0 15.0 15.0 15.0 15.0 15.0 15.0 15.0 15.0 15.0 15.0 15.0 15.0 15.0 15.0 15.0 15.0 15.0 15.0 15.0 15.0 15.0 15.0
9.4 9.7 11.4 14.9 15.0 15.0 15.0 15.0 15.0 15.0 15.0 15.0 13.6 0.1 0.1 14.1 15.0 14.7 9.5 0.0 6.2 15.0 15.0 15.0 15.0 15.0 15.0 15.0 15.0 15.0 15.0 15.0 15.0 15.0 15.0 15.0 15.0 15.0 15.0 15.0 15.0 15.0 15.0 15.0 15.0 15.0 15.0
12.8 12.6 7.7 10.7 14.6 15.0 15.0 15.0 15.0 15.0 14.8 13.7 13.1 0.3 8.4 15.0 5.5 8.3 2.6 15.0 15.0 15.0 15.0 15.0 15.0 15.0 15.0 15.0 15.0 15.0 15.0 15.0 15.0 15.0 15.0 15.0 15.0 15.0 15.0 15.0 15.0 15.0 15.0 15.0 15.0 15.0 15.0
15.0 15.0 13.9 8.0 9.1 15.0 15.0 15.0 15.0 15.0 13.8 15.0 5.7 0.2 14.0 15.0 11.5 0.3 0.1 4.5 15.0 15.0 15.0 15.0 15.0 15.0 15.0 15.0 15.0 15.0 15.0 15.0 15.0 15.0 15.0 15.0 15.0 15.0 15.0 15.0 15.0 15.0 15.0 15.0 15.0 15.0 15.0
15.0 15.0 15.0 10.3 8.6 13.8 15.0 15.0 15.0 15.0 10.5 14.8 12.7 0.2 14.6 15.0 0.2 0.1 0.1 15.0 15.0 15.0 15.0 15.0 15.0 15.0 15.0 15.0 15.0 15.0 15.0 15.0 15.0 15.0 15.0 15.0 15.0 15.0 15.0 15.0 15.0 15.0 15.0 15.0 15.0 15.0 15.0
15.0 15.0 15.0 11.3 6.9 4.8 11.2 15.0 15.0 15.0 13.9 15.0 2.6 0.0 13.9 0.2 0.2 0.1 15.0 15.0 15.0 15.0 15.0 15.0 15.0 15.0 15.0 15.0 15.0 15.0 15.0 15.0 15.0 15.0 15.0 15.0 15.0 15.0 15.0 15.0 15.0 15.0 15.0 15.0 15.0 15.0 15.0
15.0 15.0 15.0 15.0 12.5 8.4 7.0 14.8 12.8 15.0 12.9 14.7 0.1 0.0 0.0 0.1 13.9 15.0 15.0 15.0 15.0 15.0 15.0 15.0 15.0 15.0 15.0 15.0 15.0 15.0 15.0 15.0 15.0 15.0 15.0 15.0 15.0 15.0 15.0 15.0 15.0 15.0 15.0 15.0 15.0 6.1 15.0
14.8 15.0 15.0 13.1 15.0 3.2 11.6 8.3 15.0 9.7 15.0 14.4 0.1 4.5 12.1 0.0 0.2 15.0 15.0 15.0 15.0 15.0 15.0 15.0 15.0 15.0 15.0 15.0 15.0 15.0 15.0 15.0 15.0 15.0 15.0 15.0 15.0 15.0 15.0 15.0 15.0 15.0 15.0 15.0 15.0 15.0 15.0
14.7 12.9 15.0 15.0 14.5 5.2 2.5 6.7 15.0 15.0 14.2 5.8 0.0 0.4 11.5 15.0 15.0 15.0 14.9 15.0 15.0 15.0 15.0 15.0 15.0 15.0 15.0 15.0 15.0 15.0 15.0 15.0 15.0 15.0 14.8 15.0 15.0 15.0 15.0 15.0 15.0 15.0 15.0 15.0 15.0 15.0 15.0
10.9 8.9 15.0 15.0 10.8 8.2 5.4 4.1 15.0 14.8 12.1 5.3 1.9 12.6 15.0 15.0 15.0 11.1 15.0 15.0 15.0 15.0 15.0 15.0 15.0 15.0 15.0 15.0 6.1 13.4 15.0 15.0 15.0 12.3 15.0 15.0 15.0 15.0 15.0 15.0 15.0 15.0 15.0 15.0 15.0 15.0 15.0
8.2 9.8 14.3 12.6 11.5 8.8 10.7 11.3 14.9 11.9 12.5 9.3 15.0 13.3 0.1 2.9 15.0 10.1 15.0 15.0 15.0 15.0 15.0 15.0 15.0 15.0 15.0 15.0 15.0 15.0 15.0 15.0 15.0 15.0 15.0 15.0 15.0 15.0 15.0 15.0 11.1 15.0 15.0 15.0 15.0 15.0 15.0
10.1 9.0 9.4 9.6 11.9 10.5 11.2 14.2 14.0 11.9 12.0 15.0 15.0 13.4 0.0 6.5 15.0 15.0 15.0 15.0 15.0 15.0 15.0 15.0 15.0 15.0 15.0 15.0 2.6 11.3 15.0 15.0 15.0 15.0 15.0 15.0 15.0 15.0 15.0 15.0 15.0 15.0 15.0 15.0 15.0 15.0 15.0
12.9 11.0 11.8 8.2 9.7 9.8 12.2 11.6 15.0 15.0 12.6 15.0 15.0 15.0 3.8 0.0 5.5 15.0 15.0 15.0 15.0 15.0 15.0 15.0 15.0 15.0 15.0 15.0 15.0 15.0 15.0 15.0 15.0 15.0 15.0 15.0 15.0 15.0 3.4 1.8 8.0 15.0 15.0 15.0 15.0 15.0 15.0
15.0 15.0 11.5 7.7 8.6 8.8 14.5 14.1 15.0 15.0 15.0 11.3 15.0 15.0 11.1 0.0 15.0 15.0 15.0 15.0 15.0 15.0 15.0 15.0 15.0 15.0 15.0 7.6 2.1 12.2 15.0 15.0 15.0 15.0 8.5 15.0 15.0 15.0 15.0 9.6 15.0 15.0 15.0 15.0 15.0 15.0 15.0
15.0 15.0 15.0 15.0 13.7 12.8 14.5 15.0 14.2 15.0 15.0 9.5 15.0 15.0 12.7 0.0 1.5 7.6 15.0 15.0 15.0 15.0 15.0 15.0 11.9 13.4 15.0 15.0 9.4 13.7 15.0 15.0 15.0 15.0 15.0 15.0 10.0 10.7 3.8 0.1 4.1 15.0 15.0 15.0 15.0 15.0 15.0
14.7 15.0 15.0 15.0 15.0 15.0 15.0 15.0 15.0 15.0 15.0 6.6 5.8 15.0 15.0 13.5 0.0 14.2 8.2 11.9 15.0 15.0 15.0 15.0 15.0 14.3 15.0 15.0 2.1 15.0 15.0 11.4 15.0 15.0 15.0 2.4 15.0 14.6 14.9 15.0 15.0 15.0 15.0 15.0 15.0 15.0 15.0

GFSGBSN_sfc_vis_132.txt.gz
Visibility
15.0 15.0 15.0 15.0 15.0 15.0 15.0 15.0 15.0 15.0 15.0 15.0 15.0 15.0 15.0 15.0 15.0 15.0 15.0 15.0 15.0 15.0 15.0 15.0 15.0 15.0 15.0 15.0 15.0 15.0 15.0 15.0 15.0 15.0 15.0 15.0 15.0 15.0 15.0 15.0 15.0 15.0 15.0 15.0 15.0 15.0 15.0
11.9 15.0 14.4 14.9 15.0 15.0 15.0 15.0 15.0 15.0 15.0 15.0 15.0 15.0 15.0 15.0 15.0 15.0 15.0 15.0 15.0 15.0 15.0 15.0 15.0 15.0 15.0 15.0 15.0 15.0 15.0 15.0 15.0 15.0 15.0 15.0 15.0 15.0 15.0 15.0 15.0 15.0 15.0 15.0 15.0 15.0 15.0
8.3 7.9 13.7 12.5 6.7 15.0 12.0 15.0 15.0 15.0 15.0 15.0 15.0 15.0 15.0 15.0 15.0 15.0 15.0 15.0 15.0 15.0 15.0 15.0 15.0 15.0 15.0 15.0 15.0 15.0 15.0 15.0 15.0 15.0 15.0 15.0 15.0 15.0 15.0 15.0 15.0 15.0 15.0 15.0 15.0 15.0 15.0
14.9 12.5 7.2 7.3 6.3 12.2 13.5 8.2 13.0 12.1 14.4 15.0 15.0 15.0 15.0 15.0 15.0 15.0 14.3 14.6 15.0 15.0 15.0 15.0 15.0 15.0 15.0 15.0 15.0 15.0 15.0 15.0 15.0 15.0 15.0 15.0 15.0 15.0 15.0 15.0 15.0 15.0 15.0 15.0 15.0 15.0 15.0
15.0 15.0 15.0 15.0 9.5 6.7 6.7 4.8 14.6 9.5 7.9 11.9 15.0 14.5 14.6 0.4 0.3 8.4 4.5 15.0 15.0 15.0 15.0 15.0 15.0 15.0 15.0 15.0 15.0 15.0 15.0 15.0 15.0 15.0 15.0 15.0 15.0 15.0 15.0 15.0 15.0 15.0 15.0 15.0 15.0 15.0 15.0
15.0 15.0 15.0 15.0 15.0 14.9 10.8 9.0 8.0 15.0 15.0 15.0 15.0 15.0 15.0 15.0 0.5 0.2 0.4 10.8 15.0 15.0 15.0 15.0 15.0 15.0 15.0 15.0 15.0 15.0 15.0 15.0 15.0 15.0 15.0 15.0 15.0 15.0 15.0 15.0 15.0 15.0 15.0 15.0 15.0 15.0 15.0
15.0 15.0 15.0 15.0 15.0 15.0 15.0 15.0 15.0 15.0 15.0 15.0 15.0 15.0 15.0 15.0 0.2 0.8 7.5 11.4 15.0 15.0 15.0 15.0 15.0 15.0 15.0 15.0 15.0 15.0 15.0 15.0 15.0 15.0 15.0 15.0 15.0 15.0 15.0 15.0 15.0 15.0 15.0 15.0 15.0 15.0 15.0
15.0 15.0 15.0 15.0 15.0 15.0 15.0 15.0 15.0 15.0 15.0 15.0 15.0 15.0 15.0 15.0 0.7 15.0 15.0 15.0 15.0 15.0 15.0 15.0 15.0 15.0 15.0 15.0 15.0 15.0 15.0 15.0 15.0 15.0 15.0 15.0 15.0 15.0 15.0 15.0 15.0 15.0 15.0 15.0 15.0 15.0 15.0
15.0 15.0 15.0 15.0 15.0 15.0 15.0 15.0 15.0 15.0 15.0 15.0 15.0 15.0 15.0 15.0 2.1 7.3 15.0 15.0 15.0 15.0 15.0 15.0 15.0 15.0 15.0 15.0 15.0 15.0 15.0 15.0 15.0 15.0 15.0 15.0 15.0 15.0 15.0 15.0 15.0 15.0 15.0 15.0 15.0 15.0 15.0
14.2 15.0 15.0 15.0 15.0 15.0 15.0 15.0 15.0 15.0 15.0 15.0 15.0 15.0 5.2 8.2 2.8 7.4 9.0 15.0 15.0 15.0 15.0 15.0 15.0 15.0 15.0 15.0 15.0 15.0 15.0 15.0 15.0 15.0 15.0 15.0 15.0 15.0 15.0 15.0 15.0 15.0 15.0 15.0 15.0 15.0 15.0
15.0 13.1 11.9 15.0 15.0 15.0 15.0 15.0 15.0 15.0 15.0 15.0 15.0 0.6 7.6 14.9 13.8 3.8 15.0 15.0 15.0 15.0 15.0 15.0 15.0 15.0 15.0 15.0 15.0 15.0 15.0 15.0 15.0 15.0 15.0 15.0 15.0 15.0 15.0 15.0 15.0 15.0 15.0 15.0 15.0 15.0 15.0
15.0 15.0 15.0 13.6 15.0 15.0 15.0 15.0 15.0 15.0 15.0 15.0 15.0 6.1 15.0 14.5 15.0 15.0 15.0 15.0 15.0 15.0 14.7 15.0 15.0 15.0 15.0 15.0 15.0 15.0 15.0 15.0 15.0 15.0 15.0 15.0 15.0 15.0 15.0 15.0 15.0 15.0 15.0 15.0 15.0 15.0 15.0
8.5 10.3 14.5 15.0 14.3 15.0 15.0 15.0 15.0 15.0 15.0 15.0 15.0 10.9 2.0 15.0 15.0 15.0 15.0 15.0 6.6 13.5 15.0 15.0 15.0 15.0 15.0 15.0 15.0 15.0 15.0 15.0 15.0 15.0 15.0 15.0 15.0 15.0 15.0 15.0 15.0 15.0 15.0 15.0 15.0 15.0 15.0
10.2 9.2 9.2 14.5 15.0 15.0 13.9 15.0 15.0 15.0 15.0 15.0 15.0 2.9 10.1 15.0 15.0 15.0 8.9 15.0 4.4 15.0 15.0 15.0 15.0 15.0 15.0 15.0 15.0 15.0 15.0 15.0 15.0 15.0 15.0 15.0 15.0 15.0 15.0 15.0 15.0 15.0 15.0 15.0 15.0 15.0 15.0
15.0 13.2 15.0 13.7 12.0 15.0 15.0 15.0 15.0 15.0 15.0 15.0 12.8 0.1 0.1 14.8 14.9 14.6 9.0 2.8 15.0 15.0 15.0 15.0 15.0 15.0 15.0 15.0 15.0 15.0 15.0 15.0 15.0 15.0 15.0 15.0 15.0 15.0 15.0 15.0 15.0 15.0 15.0 15.0 15.0 15.0 15.0
15.0 15.0 10.2 7.7 8.8 12.0 15.0 15.0 15.0 15.0 15.0 14.7 12.9 0.1 7.2 14.9 14.2 7.9 4.9 15.0 15.0 15.0 15.0 15.0 15.0 15.0 15.0 15.0 15.0 15.0 15.0 15.0 15.0 15.0 15.0 15.0 15.0 15.0 15.0 15.0 15.0 15.0 15.0 15.0 15.0 15.0 15.0
14.8 15.0 15.0 10.4 12.0 8.2 13.2 14.8 12.8 15.0 15.0 15.0 13.8 0.5 6.4 15.0 6.4 0.6 0.0 1.8 15.0 15.0 15.0 15.0 15.0 15.0 15.0 15.0 15.0 15.0 15.0 15.0 15.0 15.0 15.0 15.0 15.0 15.0 15.0 15.0 15.0 15.0 15.0 15.0 15.0 15.0 15.0
13.8 15.0 15.0 14.4 12.5 9.4 10.0 14.7 15.0 9.8 15.0 6.9 12.1 0.2 6.0 14.7 0.1 0.1 0.0 15.0 15.0 15.0 15.0 15.0 15.0 15.0 15.0 15.0 15.0 15.0 15.0 15.0 15.0 15.0 15.0 15.0 15.0 15.0 15.0 15.0 15.0 15.0 15.0 15.0 15.0 15.0 15.0
10.3 14.8 14.5 15.0 13.2 12.9 9.6 11.5 15.0 15.0 11.0 15.0 0.1 0.1 12.1 0.3 0.1 0.4 12.0 15.0 15.0 15.0 15.0 15.0 15.0 15.0 15.0 15.0 15.0 15.0 15.0 15.0 15.0 15.0 15.0 15.0 15.0 15.0 15.0 15.0 15.0 15.0 15.0 15.0 15.0 15.0 15.0
14.1 10.9 15.0 15.0 15.0 13.1 11.8 5.0 15.0 14.2 13.2 15.0 0.1 0.0 0.0 0.1 15.0 15.0 15.0 15.0 15.0 15.0 15.0 15.0 15.0 15.0 15.0 15.0 15.0 15.0 15.0 15.0 15.0 15.0 15.0 15.0 15.0 15.0 15.0 15.0 15.0 15.0 15.0 15.0 15.0 15.0 15.0
14.9 15.0 15.0 12.6 10.9 15.0 15.0 15.0 2.6 10.8 11.7 15.0 0.1 1.2 11.8 0.1 3.9 15.0 15.0 15.0 15.0 15.0 15.0 15.0 15.0 15.0 15.0 15.0 15.0 15.0 15.0 15.0 15.0 15.0 15.0 15.0 15.0 15.0 15.0 15.0 15.0 15.0 15.0 15.0 15.0 15.0 15.0
14.7 15.0 15.0 15.0 15.0 15.0 15.0 13.9 6.1 5.1 8.0 2.5 0.0 0.1 14.9 15.0 15.0 15.0 14.9 15.0 15.0 15.0 15.0 15.0 15.0 15.0 12.4 15.0 13.5 15.0 15.0 15.0 15.0 15.0 15.0 15.0 15.0 15.0 15.0 15.0 15.0 15.0 15.0 15.0 15.0 15.0 15.0
9.7 13.2 15.0 15.0 15.0 15.0 15.0 14.4 3.3 4.2 6.4 0.1 15.0 12.5 15.0 15.0 15.0 8.3 15.0 15.0 15.0 15.0 15.0 15.0 15.0 15.0 15.0 14.3 12.0 15.0 15.0 15.0 15.0 15.0 15.0 15.0 13.9 2.0 3.4 15.0 15.0 15.0 15.0 15.0 15.0 15.0 15.0
11.4 15.0 15.0 15.0 15.0 13.8 11.5 15.0 14.3 3.4 3.8 15.0 15.0 15.0 0.0 4.1 15.0 15.0 15.0 15.0 15.0 15.0 15.0 15.0 15.0 15.0 15.0 15.0 15.0 15.0 15.0 15.0 15.0 15.0 15.0 15.0 15.0 15.0 15.0 15.0 15.0 15.0 15.0 15.0 15.0 15.0 15.0
15.0 14.5 13.6 15.0 15.0 10.3 8.7 14.7 15.0 2.0 3.8 15.0 15.0 15.0 12.5 0.1 15.0 15.0 15.0 15.0 15.0 15.0 15.0 15.0 15.0 15.0 15.0 15.0 15.0 15.0 15.0 15.0 15.0 15.0 15.0 15.0 15.0 15.0 15.0 15.0 15.0 15.0 15.0 15.0 15.0 15.0 15.0
10.5 12.3 15.0 15.0 11.9 9.8 11.2 9.5 8.9 2.3 3.0 15.0 15.0 15.0 4.8 13.0 6.7 15.0 15.0 15.0 15.0 15.0 15.0 15.0 15.0 15.0 14.4 15.0 1.5 0.3 10.6 11.1 3.5 15.0 15.0 15.0 15.0 15.0 15.0 0.9 7.7 15.0 15.0 15.0 15.0 15.0 15.0
15.0 13.3 14.4 14.5 15.0 8.3 10.7 9.9 4.7 3.5 3.3 15.0 15.0 15.0 2.4 0.0 12.7 15.0 15.0 15.0 15.0 15.0 15.0 15.0 15.0 15.0 14.1 15.0 15.0 0.9 14.4 15.0 15.0 15.0 15.0 15.0 15.0 15.0 15.0 11.0 13.0 15.0 15.0 15.0 15.0 15.0 15.0
15.0 14.7 15.0 11.5 8.6 7.2 7.8 14.6 7.6 6.8 8.4 12.6 15.0 15.0 15.0 0.0 1.2 10.8 14.5 15.0 15.0 15.0 15.0 15.0 15.0 15.0 15.0 7.6 3.5 6.8 15.0 15.0 15.0 15.0 15.0 15.0 15.0 9.5 15.0 0.2 0.9 15.0 15.0 15.0 15.0 15.0 15.0
15.0 14.5 14.9 9.9 7.6 7.5 8.5 5.1 8.7 10.5 8.9 13.2 15.0 15.0 15.0 15.0 0.6 15.0 11.7 7.4 15.0 15.0 15.0 15.0 15.0 15.0 15.0 15.0 15.0 15.0 15.0 15.0 15.0 15.0 15.0 15.0 15.0 14.6 15.0 14.8 15.0 15.0 15.0 15.0 15.0 15.0 15.0

GFSGBSN_sfc_vis_135.txt.gz
Visibility
15.0 15.0 15.0 5.1 12.5 15.0 15.0 15.0 15.0 15.0 15.0 15.0 15.0 15.0 15.0 15.0 15.0 15.0 15.0 15.0 15.0 15.0 15.0 15.0 15.0 15.0 15.0 15.0 15.0 15.0 15.0 15.0 15.0 15.0 15.0 15.0 15.0 15.0 15.0 15.0 15.0 15.0 15.0 15.0 15.0 15.0 15.0
15.0 15.0 15.0 15.0 14.4 12.7 15.0 15.0 15.0 15.0 15.0 15.0 15.0 15.0 15.0 15.0 15.0 15.0 15.0 15.0 15.0 15.0 15.0 15.0 15.0 15.0 15.0 15.0 15.0 15.0 15.0 15.0 15.0 15.0 15.0 15.0 15.0 15.0 15.0 15.0 15.0 15.0 15.0 15.0 15.0 15.0 15.0
6.4 14.3 10.3 14.4 13.2 15.0 15.0 15.0 15.0 15.0 15.0 15.0 15.0 15.0 15.0 15.0 15.0 15.0 15.0 15.0 15.0 15.0 15.0 15.0 15.0 15.0 15.0 15.0 15.0 15.0 15.0 15.0 15.0 15.0 15.0 15.0 15.0 15.0 15.0 15.0 15.0 15.0 15.0 15.0 15.0 15.0 15.0
7.7 14.2 8.4 5.8 6.7 11.6 15.0 15.0 14.7 15.0 15.0 15.0 15.0 15.0 15.0 15.0 15.0 15.0 15.0 15.0 15.0 15.0 15.0 15.0 15.0 15.0 15.0 15.0 15.0 15.0 15.0 15.0 15.0 15.0 15.0 15.0 15.0 15.0 15.0 15.0 15.0 15.0 15.0 15.0 15.0 15.0 15.0
15.0 11.0 9.7 6.7 9.5 7.6 13.6 7.8 6.6 14.2 12.2 15.0 15.0 12.4 15.0 15.0 0.3 8.3 3.9 8.1 15.0 15.0 15.0 15.0 15.0 15.0 15.0 15.0 15.0 15.0 15.0 15.0 15.0 15.0 15.0 15.0 15.0 15.0 15.0 15.0 15.0 15.0 15.0 15.0 15.0 15.0 15.0
15.0 15.0 15.0 15.0 14.9 15.0 14.8 14.3 13.6 4.6 15.0 5.3 10.1 8.9 13.6 4.4 13.9 0.5 0.5 15.0 12.2 15.0 15.0 15.0 15.0 15.0 15.0 15.0 15.0 15.0 15.0 15.0 15.0 15.0 15.0 15.0 15.0 15.0 15.0 15.0 15.0 15.0 15.0 15.0 15.0 15.0 15.0
15.0 15.0 15.0 15.0 15.0 15.0 15.0 14.5 15.0 15.0 13.2 15.0 15.0 15.0 15.0 14.8 0.3 2.0 8.3 15.0 15.0 15.0 15.0 15.0 15.0 15.0 15.0 15.0 15.0 15.0 15.0 15.0 15.0 15.0 15.0 15.0 15.0 15.0 15.0 15.0 15.0 15.0 15.0 15.0 15.0 15.0 15.0
15.0 15.0 15.0 15.0 15.0 15.0 15.0 15.0 15.0 15.0 15.0 15.0 15.0 15.0 15.0 15.0 1.5 15.0 15.0 15.0 15.0 15.0 15.0 15.0 15.0 15.0 15.0 15.0 15.0 15.0 15.0 15.0 15.0 15.0 15.0 15.0 15.0 15.0 15.0 15.0 15.0 15.0 15.0 15.0 15.0 15.0 15.0
15.0 15.0 15.0 15.0 15.0 15.0 15.0 15.0 15.0 15.0 15.0 15.0 15.0 15.0 15.0 15.0 0.7 4.4 15.0 15.0 15.0 15.0 15.0 15.0 15.0 15.0 15.0 15.0 15.0 15.0 15.0 15.0 15.0 15.0 15.0 15.0 15.0 15.0 15.0 15.0 15.0 15.0 15.0 15.0 15.0 15.0 15.0
15.0 15.0 15.0 15.0 15.0 15.0 15.0 15.0 15.0 15.0 15.0 15.0 15.0 11.6 14.3 2.6 2.6 7.3 15.0 15.0 15.0 15.0 15.0 15.0 15.0 15.0 15.0 15.0 15.0 15.0 15.0 15.0 15.0 15.0 15.0 15.0 15.0 15.0 15.0 15.0 15.0 15.0 15.0 15.0 15.0 15.0 15.0
14.6 14.0 15.0 11.5 15.0 15.0 15.0 15.0 15.0 15.0 15.0 15.0 15.0 15.0 15.0 15.0 12.3 15.0 15.0 15.0 15.0 15.0 15.0 15.0 15.0 15.0 15.0 15.0 15.0 15.0 15.0 15.0 15.0 15.0 15.0 15.0 15.0 15.0 15.0 15.0 15.0 15.0 15.0 15.0 15.0 15.0 15.0
13.1 14.6 15.0 15.0 15.0 14.0 15.0 15.0 15.0 15.0 15.0 15.0 15.0 15.0 14.5 15.0 15.0 15.0 15.0 15.0 15.0 15.0 15.0 15.0 15.0 15.0 15.0 15.0 15.0 15.0 15.0 15.0 15.0 15.0 15.0 15.0 15.0 15.0 15.0 15.0 15.0 15.0 15.0 15.0 15.0 15.0 15.0
10.2 11.1 12.8 14.9 15.0 15.0 10.6 15.0 15.0 15.0 15.0 15.0 15.0 15.0 2.1 15.0 15.0 15.0 15.0 15.0 15.0 15.0 15.0 15.0 15.0 15.0 15.0 15.0 15.0 15.0 15.0 15.0 15.0 15.0 15.0 15.0 15.0 15.0 15.0 15.0 15.0 15.0 15.0 15.0 15.0 15.0 15.0
11.6 15.0 9.6 13.3 15.0 15.0 14.9 14.6 15.0 15.0 15.0 15.0 15.0 11.9 10.0 14.6 15.0 15.0 15.0 15.0 2.4 15.0 15.0 15.0 15.0 15.0 15.0 15.0 15.0 15.0 15.0 15.0 15.0 15.0 15.0 15.0 15.0 15.0 15.0 15.0 15.0 15.0 15.0 15.0 15.0 15.0 15.0
9.1 14.4 12.6 12.9 13.0 14.7 15.0 15.0 15.0 15.0 15.0 15.0 15.0 0.1 0.1 4.2 15.0 14.7 13.4 0.7 15.0 15.0 15.0 15.0 15.0 15.0 15.0 15.0 15.0 15.0 15.0 15.0 15.0 15.0 15.0 15.0 15.0 15.0 15.0 15.0 15.0 15.0 15.0 15.0 15.0 15.0 15.0
14.7 9.4 13.6 11.3 15.0 11.7 14.6 15.0 15.0 14.1 14.9 15.0 13.3 0.1 6.9 15.0 14.4 6.2 0.2 4.1 15.0 15.0 15.0 15.0 15.0 15.0 15.0 15.0 15.0 15.0 15.0 15.0 15.0 15.0 15.0 15.0 15.0 15.0 15.0 15.0 15.0 15.0 15.0 15.0 15.0 15.0 15.0
12.8 12.3 9.9 15.0 15.0 12.5 15.0 14.7 14.7 15.0 11.8 15.0 9.0 0.2 6.9 13.2 7.2 0.1 0.0 13.4 15.0 15.0 15.0 15.0 15.0 15.0 15.0 15.0 15.0 15.0 15.0 15.0 15.0 15.0 15.0 15.0 15.0 15.0 15.0 15.0 15.0 15.0 15.0 15.0 15.0 15.0 15.0
15.0 15.0 14.8 6.4 14.8 10.8 14.9 15.0 8.1 15.0 14.6 12.5 2.4 5.0 1.5 4.9 0.0 0.1 0.1 15.0 15.0 15.0 15.0 15.0 15.0 15.0 15.0 15.0 15.0 15.0 15.0 15.0 15.0 15.0 15.0 15.0 15.0 15.0 15.0 15.0 15.0 15.0 15.0 15.0 15.0 15.0 15.0
14.6 15.0 15.0 3.6 10.6 10.4 11.1 15.0 5.3 8.2 15.0 15.0 1.9 14.2 15.0 0.2 0.0 0.0 15.0 12.1 15.0 15.0 15.0 15.0 15.0 15.0 15.0 15.0 15.0 15.0 15.0 15.0 15.0 15.0 15.0 15.0 15.0 15.0 15.0 15.0 15.0 15.0 15.0 15.0 15.0 15.0 15.0
10.5 15.0 10.7 4.4 8.7 8.7 8.8 14.5 14.5 7.4 11.0 13.6 0.1 0.0 0.0 0.1 7.4 15.0 11.7 15.0 12.3 15.0 15.0 15.0 15.0 15.0 15.0 15.0 15.0 15.0 15.0 15.0 15.0 15.0 15.0 15.0 15.0 15.0 15.0 15.0 15.0 15.0 15.0 15.0 15.0 15.0 15.0
11.3 11.6 7.9 6.7 10.0 9.4 13.6 10.6 14.3 4.3 7.7 15.0 0.6 0.0 11.3 0.2 3.4 0.1 15.0 15.0 15.0 15.0 15.0 15.0 15.0 15.0 15.0 15.0 15.0 15.0 15.0 15.0 15.0 15.0 15.0 15.0 15.0 15.0 15.0 15.0 15.0 15.0 15.0 15.0 15.0 15.0 15.0
11.5 11.6 2.9 3.5 3.7 10.0 11.4 14.9 7.8 10.3 5.2 14.5 0.0 0.1 0.4 15.0 15.0 11.4 0.1 15.0 15.0 15.0 15.0 15.0 15.0 15.0 15.0 14.9 14.9 14.9 15.0 15.0 15.0 15.0 15.0 15.0 15.0 15.0 15.0 15.0 15.0 15.0 15.0 15.0 15.0 15.0 15.0
14.8 15.0 13.4 8.3 11.1 7.5 9.7 15.0 13.0 13.5 3.3 0.1 2.3 12.5 15.0 15.0 15.0 13.7 5.1 15.0 15.0 15.0 15.0 15.0 15.0 15.0 15.0 14.9 15.0 15.0 15.0 15.0 15.0 15.0 15.0 15.0 15.0 15.0 15.0 15.0 15.0 15.0 15.0 15.0 15.0 15.0 15.0
15.0 14.6 11.8 12.4 15.0 9.8 13.0 14.9 13.8 10.4 14.0 2.6 10.0 15.0 15.0 0.3 15.0 15.0 15.0 15.0 15.0 15.0 15.0 15.0 15.0 15.0 15.0 15.0 12.5 14.7 15.0 15.0 15.0 15.0 15.0 15.0 15.0 1.9 8.9 15.0 15.0 15.0 15.0 15.0 15.0 15.0 15.0
15.0 15.0 13.5 14.7 15.0 15.0 15.0 14.8 15.0 12.1 10.5 8.9 9.8 15.0 15.0 15.0 15.0 15.0 15.0 15.0 15.0 15.0 15.0 15.0 15.0 15.0 15.0 15.0 15.0 15.0 15.0 15.0 15.0 15.0 15.0 15.0 15.0 15.0 15.0 15.0 15.0 15.0 15.0 15.0 15.0 15.0 15.0
15.0 15.0 15.0 12.9 14.7 14.0 13.2 13.3 14.7 15.0 6.4 9.0 3.3 15.0 15.0 15.0 15.0 15.0 15.0 15.0 15.0 15.0 15.0 15.0 15.0 15.0 15.0 15.0 15.0 15.0 15.0 15.0 15.0 15.0 15.0 15.0 15.0 15.0 4.8 0.9 15.0 15.0 15.0 15.0 15.0 15.0 15.0
14.2 13.1 14.9 14.4 14.8 15.0 15.0 15.0 14.8 15.0 6.4 12.1 2.7 13.9 14.3 15.0 15.0 15.0 15.0 15.0 15.0 15.0 15.0 15.0 15.0 15.0 15.0 15.0 0.6 1.3 14.6 15.0 15.0 15.0 15.0 13.7 4.9 0.9 15.0 13.8 15.0 15.0 15.0 15.0 15.0 15.0 15.0
15.0 15.0 12.9 13.1 15.0 15.0 15.0 15.0 15.0 7.6 11.4 5.2 2.7 10.9 15.0 6.6 2.0 15.0 5.7 15.0 15.0 15.0 15.0 15.0 15.0 15.0 15.0 15.0 13.8 14.9 15.0 15.0 15.0 15.0 15.0 15.0 15.0 15.0 15.0 0.2 3.8 15.0 15.0 15.0 15.0 15.0 15.0
15.0 15.0 11.8 14.7 15.0 15.0 14.9 15.0 14.7 9.6 6.8 4.2 0.2 14.7 15.0 15.0 1.9 15.0 15.0 15.0 15.0 1.9 15.0 15.0 15.0 15.0 15.0 15.0 15.0 15.0 15.0 15.0 15.0 15.0 15.0 15.0 15.0 15.0 15.0 15.0 15.0 15.0 15.0 15.0 15.0 15.0 15.0

GFSGBSN_sfc_vis_141.txt.gz
Visibility
6.8 6.8 6.6 14.6 15.0 15.0 15.0 15.0 15.0 15.0 15.0 15.0 15.0 15.0 15.0 15.0 15.0 15.0 15.0 15.0 15.0 15.0 15.0 15.0 15.0 15.0 15.0 15.0 15.0 15.0 15.0 15.0 15.0 15.0 15.0 15.0 15.0 15.0 15.0 15.0 15.0 15.0 15.0 15.0 15.0 15.0 15.0
14.4 15.0 13.6 4.5 10.4 14.9 11.9 15.0 15.0 15.0 15.0 15.0 15.0 15.0 15.0 15.0 15.0 15.0 15.0 15.0 15.0 15.0 15.0 15.0 15.0 7.3 15.0 15.0 15.0 15.0 15.0 15.0 15.0 15.0 15.0 15.0 15.0 15.0 15.0 15.0 15.0 15.0 15.0 15.0 15.0 15.0 15.0
14.5 15.0 15.0 15.0 14.9 3.5 8.9 4.9 15.0 14.1 15.0 15.0 15.0 15.0 15.0 15.0 15.0 15.0 15.0 15.0 15.0 15.0 15.0 15.0 15.0 15.0 15.0 15.0 15.0 15.0 15.0 15.0 15.0 15.0 15.0 15.0 15.0 15.0 15.0 15.0 15.0 15.0 15.0 15.0 15.0 15.0 15.0
15.0 4.6 10.2 12.8 15.0 7.9 12.7 8.1 15.0 15.0 15.0 15.0 15.0 15.0 15.0 15.0 15.0 15.0 15.0 15.0 15.0 15.0 15.0 15.0 15.0 15.0 15.0 15.0 15.0 15.0 15.0 15.0 15.0 15.0 15.0 15.0 15.0 15.0 15.0 15.0 15.0 15.0 15.0 15.0 15.0 15.0 15.0
15.0 15.0 7.9 5.5 5.7 9.0 8.8 15.0 13.5 15.0 11.6 13.3 12.3 15.0 15.0 15.0 15.0 15.0 15.0 15.0 15.0 15.0 15.0 14.2 15.0 15.0 15.0 15.0 15.0 15.0 15.0 15.0 15.0 15.0 15.0 15.0 15.0 15.0 15.0 15.0 15.0 15.0 15.0 15.0 15.0 15.0 15.0
15.0 15.0 15.0 15.0 4.3 10.3 5.8 6.4 15.0 12.8 8.6 11.3 13.2 14.5 13.7 15.0 15.0 15.0 15.0 15.0 15.0 15.0 15.0 15.0 15.0 15.0 15.0 15.0 15.0 15.0 15.0 15.0 15.0 15.0 15.0 15.0 15.0 15.0 15.0 15.0 15.0 15.0 15.0 15.0 15.0 15.0 15.0
15.0 15.0 15.0 14.8 15.0 15.0 6.3 13.7 15.0 15.0 15.0 9.3 10.9 15.0 5.9 14.8 6.8 3.7 8.1 15.0 0.2 1.9 15.0 15.0 15.0 15.0 15.0 15.0 15.0 15.0 15.0 15.0 15.0 15.0 15.0 15.0 15.0 15.0 15.0 15.0 15.0 15.0 15.0 15.0 15.0 15.0 15.0
15.0 13.0 14.6 14.2 13.4 15.0 15.0 15.0 15.0 15.0 15.0 15.0 14.8 13.6 14.3 8.3 8.1 5.1 11.1 4.6 15.0 15.0 15.0 15.0 15.0 15.0 15.0 15.0 15.0 15.0 15.0 15.0 15.0 15.0 15.0 15.0 15.0 15.0 15.0 15.0 15.0 15.0 15.0 15.0 15.0 15.0 15.0
15.0 15.0 15.0 15.0 12.2 15.0 15.0 15.0 15.0 15.0 15.0 14.3 15.0 15.0 15.0 10.1 13.9 0.1 11.3 15.0 15.0 15.0 15.0 15.0 15.0 15.0 15.0 15.0 15.0 15.0 15.0 15.0 15.0 15.0 15.0 15.0 15.0 15.0 15.0 15.0 15.0 15.0 15.0 15.0 15.0 15.0 15.0
15.0 14.4 15.0 15.0 15.0 14.9 15.0 15.0 15.0 14.7 15.0 15.0 15.0 15.0 15.0 13.9 0.1 12.9 11.7 15.0 15.0 15.0 15.0 15.0 15.0 15.0 15.0 15.0 15.0 15.0 15.0 15.0 15.0 15.0 15.0 15.0 15.0 15.0 15.0 15.0 15.0 15.0 15.0 15.0 15.0 15.0 15.0
15.0 15.0 15.0 15.0 15.0 15.0 15.0 15.0 15.0 13.9 14.4 15.0 15.0 15.0 15.0 6.7 15.0 15.0 15.0 15.0 14.9 15.0 2.0 15.0 15.0 15.0 15.0 15.0 15.0 15.0 15.0 15.0 15.0 15.0 15.0 15.0 15.0 15.0 15.0 15.0 15.0 15.0 15.0 15.0 15.0 15.0 15.0
15.0 15.0 15.0 15.0 15.0 15.0 15.0 15.0 15.0 15.0 15.0 15.0 14.6 15.0 10.5 4.8 7.5 15.0 15.0 15.0 9.1 5.0 1.2 15.0 15.0 15.0 15.0 15.0 15.0 15.0 15.0 15.0 15.0 15.0 15.0 15.0 15.0 15.0 15.0 15.0 15.0 15.0 15.0 15.0 15.0 15.0 15.0
15.0 15.0 15.0 15.0 15.0 13.5 15.0 15.0 15.0 15.0 15.0 15.0 15.0 15.0 0.3 8.3 15.0 15.0 15.0 10.6 5.7 7.0 15.0 15.0 15.0 15.0 15.0 15.0 15.0 15.0 15.0 15.0 15.0 15.0 15.0 15.0 15.0 15.0 15.0 15.0 15.0 15.0 15.0 15.0 15.0 15.0 15.0
15.0 15.0 15.0 15.0 15.0 15.0 10.2 13.8 15.0 15.0 15.0 15.0 15.0 15.0 15.0 15.0 6.3 6.1 5.3 3.2 1.3 15.0 15.0 15.0 15.0 15.0 15.0 15.0 15.0 15.0 15.0 15.0 15.0 15.0 15.0 15.0 15.0 15.0 15.0 15.0 15.0 15.0 15.0 15.0 15.0 15.0 15.0
15.0 15.0 15.0 15.0 15.0 15.0 15.0 13.7 13.0 13.4 15.0 15.0 15.0 15.0 15.0 15.0 14.3 9.3 5.7 0.3 4.1 15.0 15.0 15.0 15.0 15.0 15.0 15.0 15.0 15.0 15.0 15.0 15.0 15.0 15.0 15.0 15.0 15.0 15.0 15.0 15.0 15.0 15.0 15.0 15.0 15.0 15.0
15.0 15.0 15.0 15.0 15.0 15.0 15.0 14.7 8.7 14.7 15.0 15.0 15.0 13.2 15.0 15.0 12.4 3.8 1.7 2.3 15.0 15.0 15.0 15.0 15.0 15.0 15.0 15.0 15.0 15.0 15.0 15.0 15.0 15.0 15.0 15.0 15.0 15.0 15.0 15.0 15.0 15.0 15.0 15.0 15.0 15.0 15.0
15.0 15.0 15.0 15.0 15.0 15.0 15.0 15.0 6.4 13.1 15.0 15.0 10.6 8.9 15.0 15.0 4.5 0.0 0.1 6.7 15.0 15.0 15.0 15.0 15.0 15.0 15.0 15.0 15.0 15.0 15.0 15.0 15.0 15.0 15.0 15.0 15.0 15.0 15.0 15.0 15.0 15.0 15.0 15.0 15.0 15.0 15.0
15.0 15.0 15.0 15.0 15.0 15.0 15.0 15.0 6.3 3.1 12.6 10.0 6.9 1.6 15.0 15.0 0.0 3.3 0.1 15.0 15.0 15.0 15.0 15.0 15.0 15.0 15.0 15.0 15.0 15.0 15.0 15.0 15.0 15.0 15.0 15.0 15.0 15.0 15.0 15.0 15.0 15.0 15.0 15.0 15.0 15.0 15.0
15.0 15.0 15.0 15.0 15.0 15.0 14.6 12.9 11.8 7.9 3.7 7.1 0.1 13.1 6.4 11.5 0.0 0.0 8.7 15.0 15.0 15.0 15.0 15.0 15.0 15.0 15.0 15.0 15.0 15.0 15.0 15.0 15.0 15.0 15.0 15.0 15.0 15.0 15.0 15.0 15.0 15.0 15.0 15.0 15.0 15.0 15.0
15.0 15.0 15.0 15.0 15.0 15.0 15.0 10.5 14.3 9.9 7.3 6.9 0.3 0.0 0.3 0.0 9.4 14.3 8.4 15.0 15.0 15.0 15.0 15.0 15.0 15.0 15.0 15.0 15.0 15.0 15.0 15.0 15.0 15.0 15.0 15.0 15.0 15.0 15.0 15.0 15.0 15.0 15.0 15.0 15.0 15.0 15.0
15.0 15.0 15.0 13.7 14.8 15.0 15.0 15.0 14.9 5.1 6.0 0.7 0.2 0.5 11.2 0.0 1.0 13.3 11.5 15.0 15.0 15.0 15.0 15.0 15.0 15.0 15.0 15.0 15.0 15.0 15.0 15.0 15.0 15.0 15.0 15.0 15.0 3.0 15.0 15.0 15.0 15.0 15.0 15.0 15.0 15.0 14.8
15.0 15.0 15.0 11.9 12.4 14.4 15.0 14.9 15.0 15.0 4.5 0.1 0.0 1.3 12.2 15.0 15.0 5.5 5.8 2.4 15.0 15.0 15.0 15.0 15.0 15.0 15.0 15.0 15.0 13.0 15.0 15.0 15.0 15.0 15.0 15.0 11.8 3.4 1.0 15.0 15.0 15.0 15.0 15.0 15.0 15.0 15.0
14.3 15.0 15.0 15.0 11.9 15.0 9.1 14.9 15.0 15.0 5.7 0.8 0.4 5.2 15.0 15.0 15.0 10.1 0.6 15.0 15.0 15.0 15.0 15.0 15.0 9.8 6.8 14.8 15.0 12.5 15.0 13.9 15.0 9.7 12.5 15.0 10.8 15.0 5.1 11.9 11.7 15.0 15.0 15.0 15.0 15.0 15.0
13.3 13.9 15.0 15.0 14.5 14.4 12.6 14.4 14.9 11.7 11.2 1.7 4.4 3.8 4.8 1.6 7.3 13.2 15.0 15.0 15.0 15.0 9.9 15.0 8.0 9.1 6.8 12.9 15.0 13.0 3.6 14.0 14.0 15.0 13.0 14.1 8.3 12.9 15.0 13.5 2.1 15.0 15.0 15.0 15.0 15.0 15.0
14.7 15.0 15.0 15.0 14.9 9.0 14.8 15.0 15.0 13.1 8.0 4.6 4.5 12.0 15.0 12.8 15.0 13.2 15.0 15.0 13.7 10.6 10.3 2.8 10.9 12.3 13.1 15.0 0.6 0.0 0.0 0.7 10.5 15.0 15.0 7.4 15.0 15.0 1.8 9.0 15.0 15.0 15.0 15.0 15.0 15.0 15.0
15.0 15.0 15.0 13.8 10.1 10.7 15.0 15.0 15.0 15.0 2.3 3.9 4.7 15.0 15.0 13.5 1.3 15.0 15.0 15.0 14.7 1.9 10.9 5.7 2.2 12.1 15.0 14.7 0.3 0.2 0.4 14.1 3.6 8.0 15.0 4.8 9.8 7.4 10.6 4.3 15.0 15.0 15.0 15.0 15.0 15.0 15.0
15.0 15.0 15.0 15.0 15.0 11.0 15.0 14.6 15.0 13.1 1.9 2.9 5.0 15.0 15.0 8.2 15.0 15.0 10.6 15.0 15.0 6.2 8.8 8.0 10.8 9.5 14.7 15.0 1.4 2.6 8.5 15.0 3.0 8.2 15.0 15.0 12.2 13.6 15.0 15.0 15.0 15.0 15.0 15.0 15.0 15.0 15.0
15.0 15.0 15.0 15.0 14.9 10.1 6.5 10.4 10.7 4.6 1.6 10.4 10.2 15.0 15.0 15.0 7.5 15.0 15.0 15.0 15.0 15.0 1.6 2.5 1.7 5.7 9.5 0.9 1.2 8.3 15.0 15.0 15.0 15.0 10.2 15.0 15.0 15.0 15.0 15.0 15.0 15.0 15.0 15.0 15.0 15.0 15.0
15.0 15.0 15.0 15.0 15.0 9.0 12.1 2.8 1.9 2.5 3.9 4.8 13.3 9.0 15.0 15.0 0.1 7.6 11.8 15.0 13.9 15.0 15.0 15.0 10.2 13.7 15.0 1.4 15.0 15.0 15.0 15.0 15.0 11.9 15.0 3.5 14.9 15.0 15.0 15.0 15.0 15.0 15.0 15.0 15.0 15.0 15.0